Observation data for Fort Chadbourne on 05/25/2019      Previous  Date  Next       Current Mesonet Observations  Soil Data  Daily Summary Page  Observations in Plain Language
KCH1 250500Z 16009KT 24/19 A2994 RMK A01 T02370194  RH  077%=      5-min Rain = 0
KCH1 250501Z 15008KT 24/19 A2994 RMK A01 T02360194  RH  077%=      5-min Rain = 0
KCH1 250502Z 15010KT 24/19 A2994 RMK A01 T02360194  RH  077%=      5-min Rain = 0
KCH1 250503Z 15010KT 24/19 A2994 RMK A01 T02360194  RH  077%=      5-min Rain = 0
KCH1 250504Z 15009KT 24/19 A2994 RMK A01 T02360194  RH  077%=      5-min Rain = 0
KCH1 250505Z 16007KT 24/19 A2994 RMK A01 T02350194  RH  078%=      5-min Rain = 0
KCH1 250506Z 16010KT 24/19 A2994 RMK A01 T02350194  RH  078%=      5-min Rain = 0
KCH1 250507Z 16010KT 24/19 A2995 RMK A01 T02350193  RH  078%=      5-min Rain = 0
KCH1 250508Z 16012KT 24/19 A2994 RMK A01 T02350193  RH  077%=      5-min Rain = 0
KCH1 250509Z 15011KT 24/19 A2994 RMK A01 T02350193  RH  077%=      5-min Rain = 0
KCH1 250510Z 15010KT 24/19 A2995 RMK A01 T02350193  RH  077%=      5-min Rain = 0
KCH1 250511Z 16010KT 24/19 A2994 RMK A01 T02350193  RH  077%=      5-min Rain = 0
KCH1 250512Z 15009KT 24/19 A2994 RMK A01 T02350194  RH  077%=      5-min Rain = 0
KCH1 250513Z 15009KT 24/19 A2994 RMK A01 T02350194  RH  078%=      5-min Rain = 0
KCH1 250514Z 15008KT 23/19 A2994 RMK A01 T02340194  RH  078%=      5-min Rain = 0
KCH1 250515Z 15009KT 23/19 A2994 RMK A01 T02340194  RH  078%=      5-min Rain = 0
KCH1 250516Z 16010KT 23/19 A2995 RMK A01 T02340194  RH  078%=      5-min Rain = 0
KCH1 250517Z 16007KT 23/19 A2995 RMK A01 T02340194  RH  078%=      5-min Rain = 0
KCH1 250518Z 15009KT 23/19 A2995 RMK A01 T02340194  RH  079%=      5-min Rain = 0
KCH1 250519Z 15010KT 23/19 A2995 RMK A01 T02330194  RH  079%=      5-min Rain = 0
KCH1 250520Z 16009KT 23/19 A2995 RMK A01 T02330194  RH  078%=      5-min Rain = 0
KCH1 250521Z 15009KT 23/19 A2995 RMK A01 T02330194  RH  078%=      5-min Rain = 0
KCH1 250522Z 16007KT 23/19 A2995 RMK A01 T02330194  RH  078%=      5-min Rain = 0
KCH1 250523Z 16008KT 23/19 A2995 RMK A01 T02330194  RH  079%=      5-min Rain = 0
KCH1 250524Z 16006KT 23/19 A2995 RMK A01 T02330194  RH  079%=      5-min Rain = 0
KCH1 250525Z 16009KT 23/19 A2995 RMK A01 T02320194  RH  079%=      5-min Rain = 0
KCH1 250526Z 17009KT 23/19 A2995 RMK A01 T02320194  RH  079%=      5-min Rain = 0
KCH1 250527Z 17008KT 23/20 A2995 RMK A01 T02330195  RH  079%=      5-min Rain = 0
KCH1 250528Z 16008KT 23/19 A2995 RMK A01 T02320194  RH  079%=      5-min Rain = 0
KCH1 250529Z 15007G12KT 23/19 A2995 RMK A01 T02320194  RH  079%=      5-min Rain = 0
KCH1 250530Z 16008KT 23/20 A2995 RMK A01 T02310195  RH  080%=      5-min Rain = 0
KCH1 250531Z 16009KT 23/19 A2995 RMK A01 T02310194  RH  080%=      5-min Rain = 0
KCH1 250532Z 16007KT 23/19 A2995 RMK A01 T02310194  RH  080%=      5-min Rain = 0
KCH1 250533Z 15008KT 23/20 A2995 RMK A01 T02310195  RH  080%=      5-min Rain = 0
KCH1 250534Z 16009KT 23/19 A2995 RMK A01 T02300194  RH  080%=      5-min Rain = 0
KCH1 250535Z 15009KT 23/19 A2995 RMK A01 T02300194  RH  080%=      5-min Rain = 0
KCH1 250536Z 15008KT 23/20 A2995 RMK A01 T02310195  RH  080%=      5-min Rain = 0
KCH1 250537Z 15010G15KT 23/20 A2995 RMK A01 T02300195  RH  080%=      5-min Rain = 0
KCH1 250538Z 15009KT 23/19 A2995 RMK A01 T02300194  RH  080%=      5-min Rain = 0
KCH1 250539Z 16008G13KT 23/19 A2995 RMK A01 T02300194  RH  080%=      5-min Rain = 0
KCH1 250540Z 15009KT 23/19 A2995 RMK A01 T02300194  RH  080%=      5-min Rain = 0
KCH1 250541Z 15009KT 23/19 A2995 RMK A01 T02300194  RH  080%=      5-min Rain = 0
KCH1 250542Z 16008KT 23/19 A2995 RMK A01 T02300194  RH  080%=      5-min Rain = 0
KCH1 250543Z 16010KT 23/19 A2995 RMK A01 T02300194  RH  080%=      5-min Rain = 0
KCH1 250544Z 16008KT 23/19 A2995 RMK A01 T02300194  RH  080%=      5-min Rain = 0
KCH1 250545Z 16009KT 23/19 A2995 RMK A01 T02310194  RH  080%=      5-min Rain = 0
KCH1 250546Z 16006KT 23/19 A2995 RMK A01 T02310194  RH  080%=      5-min Rain = 0
KCH1 250547Z 17009KT 23/19 A2995 RMK A01 T02300194  RH  080%=      5-min Rain = 0
KCH1 250548Z 16008KT 23/19 A2995 RMK A01 T02300194  RH  080%=      5-min Rain = 0
KCH1 250549Z 16010KT 23/19 A2995 RMK A01 T02300194  RH  080%=      5-min Rain = 0
KCH1 250550Z 16010KT 23/19 A2995 RMK A01 T02300193  RH  080%=      5-min Rain = 0
KCH1 250551Z 16009KT 23/19 A2995 RMK A01 T02300193  RH  080%=      5-min Rain = 0
KCH1 250552Z 16008KT 23/19 A2995 RMK A01 T02310194  RH  080%=      5-min Rain = 0
KCH1 250553Z 16008KT 23/19 A2995 RMK A01 T02310194  RH  080%=      5-min Rain = 0
KCH1 250554Z 16008G13KT 23/19 A2995 RMK A01 T02300193  RH  080%=      5-min Rain = 0
KCH1 250555Z 15008KT 23/19 A2995 RMK A01 T02300193  RH  079%=      5-min Rain = 0
KCH1 250556Z 16010KT 23/19 A2995 RMK A01 T02310193  RH  079%=      5-min Rain = 0
KCH1 250557Z 15008KT 23/19 A2995 RMK A01 T02300193  RH  079%=      5-min Rain = 0
KCH1 250558Z 15007KT 23/19 A2995 RMK A01 T02300193  RH  079%=      5-min Rain = 0
KCH1 250559Z 15008KT 23/19 A2995 RMK A01 T02300193  RH  079%=      5-min Rain = 0
KCH1 250600Z 15008KT 23/19 A2995 RMK A01 T02310193  RH  079%=      5-min Rain = 0
KCH1 250601Z 16007KT 23/19 A2995 RMK A01 T02300193  RH  080%=      5-min Rain = 0
KCH1 250602Z 16006KT 23/19 A2995 RMK A01 T02300194  RH  080%=      5-min Rain = 0
KCH1 250603Z 14008KT 23/19 A2995 RMK A01 T02290193  RH  080%=      5-min Rain = 0
KCH1 250604Z 15007KT 23/19 A2995 RMK A01 T02290193  RH  080%=      5-min Rain = 0
KCH1 250605Z 15006KT 23/19 A2995 RMK A01 T02290193  RH  080%=      5-min Rain = 0
KCH1 250606Z 14007KT 23/19 A2995 RMK A01 T02290193  RH  080%=      5-min Rain = 0
KCH1 250607Z 14007KT 23/19 A2995 RMK A01 T02280193  RH  081%=      5-min Rain = 0
KCH1 250608Z 15007KT 23/19 A2995 RMK A01 T02280193  RH  081%=      5-min Rain = 0
KCH1 250609Z 15007KT 23/19 A2995 RMK A01 T02280193  RH  081%=      5-min Rain = 0
KCH1 250610Z 14006KT 23/19 A2995 RMK A01 T02280193  RH  081%=      5-min Rain = 0
KCH1 250611Z 14006KT 23/19 A2995 RMK A01 T02270193  RH  081%=      5-min Rain = 0
KCH1 250612Z 15006KT 23/19 A2995 RMK A01 T02270193  RH  081%=      5-min Rain = 0
KCH1 250613Z 15006KT 23/19 A2995 RMK A01 T02270193  RH  082%=      5-min Rain = 0
KCH1 250614Z 15005KT 23/19 A2995 RMK A01 T02260193  RH  082%=      5-min Rain = 0
KCH1 250615Z 14005KT 23/19 A2995 RMK A01 T02250193  RH  082%=      5-min Rain = 0
KCH1 250616Z 15006KT 23/19 A2995 RMK A01 T02250193  RH  082%=      5-min Rain = 0
KCH1 250617Z 15006KT 23/19 A2995 RMK A01 T02250193  RH  082%=      5-min Rain = 0
KCH1 250618Z 14006KT 23/19 A2995 RMK A01 T02250193  RH  082%=      5-min Rain = 0
KCH1 250619Z 15006KT 23/19 A2995 RMK A01 T02250193  RH  082%=      5-min Rain = 0
KCH1 250620Z 16006KT 23/19 A2995 RMK A01 T02250194  RH  082%=      5-min Rain = 0
KCH1 250621Z 15007KT 22/19 A2995 RMK A01 T02240194  RH  083%=      5-min Rain = 0
KCH1 250622Z 15007KT 22/19 A2995 RMK A01 T02240193  RH  083%=      5-min Rain = 0
KCH1 250623Z 16006KT 22/19 A2995 RMK A01 T02240193  RH  083%=      5-min Rain = 0
KCH1 250624Z 15007KT 22/19 A2995 RMK A01 T02240193  RH  083%=      5-min Rain = 0
KCH1 250625Z 16004KT 22/19 A2995 RMK A01 T02240193  RH  082%=      5-min Rain = 0
KCH1 250626Z 15008KT 22/19 A2995 RMK A01 T02240193  RH  083%=      5-min Rain = 0
KCH1 250627Z 15007KT 22/19 A2995 RMK A01 T02240193  RH  082%=      5-min Rain = 0
KCH1 250628Z 15007KT 22/19 A2995 RMK A01 T02240193  RH  082%=      5-min Rain = 0
KCH1 250629Z 15006KT 23/19 A2996 RMK A01 T02250194  RH  082%=      5-min Rain = 0
KCH1 250630Z 16006KT 23/19 A2996 RMK A01 T02250193  RH  082%=      5-min Rain = 0
KCH1 250631Z 16007KT 23/19 A2996 RMK A01 T02250193  RH  082%=      5-min Rain = 0
KCH1 250632Z 15006KT 23/19 A2996 RMK A01 T02250193  RH  082%=      5-min Rain = 0
KCH1 250633Z 16007KT 22/19 A2996 RMK A01 T02240193  RH  083%=      5-min Rain = 0
KCH1 250634Z 16006KT 22/19 A2996 RMK A01 T02240194  RH  083%=      5-min Rain = 0
KCH1 250635Z 16007KT 22/19 A2996 RMK A01 T02240193  RH  083%=      5-min Rain = 0
KCH1 250636Z 16006KT 22/19 A2996 RMK A01 T02240193  RH  083%=      5-min Rain = 0
KCH1 250637Z 16008KT 22/19 A2996 RMK A01 T02240194  RH  083%=      5-min Rain = 0
KCH1 250638Z 15007KT 22/19 A2996 RMK A01 T02240193  RH  083%=      5-min Rain = 0
KCH1 250639Z 16005KT 22/19 A2996 RMK A01 T02240192  RH  082%=      5-min Rain = 0
KCH1 250640Z 16006KT 22/19 A2996 RMK A01 T02240193  RH  083%=      5-min Rain = 0
KCH1 250641Z 15007KT 22/19 A2996 RMK A01 T02240193  RH  083%=      5-min Rain = 0
KCH1 250642Z 15008KT 22/19 A2996 RMK A01 T02240192  RH  082%=      5-min Rain = 0
KCH1 250643Z 15006KT 22/19 A2996 RMK A01 T02240192  RH  082%=      5-min Rain = 0
KCH1 250644Z 15009KT 22/19 A2996 RMK A01 T02240193  RH  083%=      5-min Rain = 0
KCH1 250645Z 15008KT 22/19 A2996 RMK A01 T02230192  RH  083%=      5-min Rain = 0
KCH1 250646Z 15009KT 22/19 A2996 RMK A01 T02230192  RH  082%=      5-min Rain = 0
KCH1 250647Z 15007KT 22/19 A2996 RMK A01 T02240192  RH  082%=      5-min Rain = 0
KCH1 250648Z 15006KT 22/19 A2996 RMK A01 T02240192  RH  082%=      5-min Rain = 0
KCH1 250649Z 15008KT 22/19 A2996 RMK A01 T02240193  RH  082%=      5-min Rain = 0
KCH1 250650Z 15007KT 22/19 A2996 RMK A01 T02240192  RH  082%=      5-min Rain = 0
KCH1 250651Z 15007KT 22/19 A2996 RMK A01 T02240192  RH  082%=      5-min Rain = 0
KCH1 250652Z 15008KT 22/19 A2996 RMK A01 T02240193  RH  082%=      5-min Rain = 0
KCH1 250653Z 15007KT 22/19 A2996 RMK A01 T02240192  RH  082%=      5-min Rain = 0
KCH1 250654Z 15005KT 23/19 A2996 RMK A01 T02250192  RH  082%=      5-min Rain = 0
KCH1 250655Z 16008KT 23/19 A2996 RMK A01 T02250192  RH  082%=      5-min Rain = 0
KCH1 250656Z 15006KT 22/19 A2996 RMK A01 T02240192  RH  082%=      5-min Rain = 0
KCH1 250657Z 15005KT 23/19 A2996 RMK A01 T02250192  RH  082%=      5-min Rain = 0
KCH1 250658Z 16005KT 22/19 A2996 RMK A01 T02240192  RH  082%=      5-min Rain = 0
KCH1 250659Z 15005KT 23/19 A2996 RMK A01 T02250193  RH  082%=      5-min Rain = 0
KCH1 250700Z 15007KT 23/19 A2996 RMK A01 T02250193  RH  082%=      5-min Rain = 0
KCH1 250701Z 14007KT 23/19 A2996 RMK A01 T02250193  RH  082%=      5-min Rain = 0
KCH1 250702Z 14008KT 23/19 A2996 RMK A01 T02250192  RH  082%=      5-min Rain = 0
KCH1 250703Z 15008KT 23/19 A2996 RMK A01 T02250192  RH  082%=      5-min Rain = 0
KCH1 250704Z 15008KT 23/19 A2996 RMK A01 T02250192  RH  082%=      5-min Rain = 0
KCH1 250705Z 15006KT 23/19 A2996 RMK A01 T02250192  RH  082%=      5-min Rain = 0
KCH1 250706Z 15008KT 23/19 A2996 RMK A01 T02250193  RH  082%=      5-min Rain = 0
KCH1 250707Z 14008KT 23/19 A2995 RMK A01 T02250192  RH  082%=      5-min Rain = 0
KCH1 250708Z 14008KT 23/19 A2996 RMK A01 T02250192  RH  082%=      5-min Rain = 0
KCH1 250709Z 15008KT 23/19 A2995 RMK A01 T02250192  RH  081%=      5-min Rain = 0
KCH1 250710Z 14007KT 23/19 A2995 RMK A01 T02250192  RH  081%=      5-min Rain = 0
KCH1 250711Z 16007KT 23/19 A2996 RMK A01 T02250192  RH  082%=      5-min Rain = 0
KCH1 250712Z 14006KT 23/19 A2996 RMK A01 T02250192  RH  082%=      5-min Rain = 0
KCH1 250713Z 13005KT 23/19 A2996 RMK A01 T02250192  RH  082%=      5-min Rain = 0
KCH1 250714Z 14007KT 23/19 A2996 RMK A01 T02250192  RH  082%=      5-min Rain = 0
KCH1 250715Z 14007KT 23/19 A2996 RMK A01 T02250192  RH  082%=      5-min Rain = 0
KCH1 250716Z 15008KT 23/19 A2995 RMK A01 T02250192  RH  082%=      5-min Rain = 0
KCH1 250717Z 15008KT 23/19 A2996 RMK A01 T02250192  RH  081%=      5-min Rain = 0
KCH1 250718Z 14007KT 23/19 A2996 RMK A01 T02250191  RH  081%=      5-min Rain = 0
KCH1 250719Z 15006KT 23/19 A2996 RMK A01 T02260192  RH  081%=      5-min Rain = 0
KCH1 250720Z 13006KT 23/19 A2995 RMK A01 T02260193  RH  082%=      5-min Rain = 0
KCH1 250721Z 14006KT 23/19 A2995 RMK A01 T02250192  RH  082%=      5-min Rain = 0
KCH1 250722Z 14007KT 23/19 A2995 RMK A01 T02250193  RH  082%=      5-min Rain = 0
KCH1 250723Z 14007KT 23/19 A2995 RMK A01 T02250192  RH  082%=      5-min Rain = 0
KCH1 250724Z 15006KT 23/19 A2995 RMK A01 T02250192  RH  082%=      5-min Rain = 0
KCH1 250725Z 15006KT 23/19 A2995 RMK A01 T02250192  RH  082%=      5-min Rain = 0
KCH1 250726Z 14005KT 23/19 A2995 RMK A01 T02250192  RH  082%=      5-min Rain = 0
KCH1 250727Z 14007KT 23/19 A2995 RMK A01 T02250193  RH  082%=      5-min Rain = 0
KCH1 250728Z 14007KT 23/19 A2995 RMK A01 T02250192  RH  082%=      5-min Rain = 0
KCH1 250729Z 14009KT 23/19 A2995 RMK A01 T02250193  RH  082%=      5-min Rain = 0
KCH1 250730Z 14009KT 23/19 A2995 RMK A01 T02250192  RH  082%=      5-min Rain = 0
KCH1 250731Z 14008KT 23/19 A2995 RMK A01 T02250192  RH  082%=      5-min Rain = 0
KCH1 250732Z 15008KT 23/19 A2995 RMK A01 T02250192  RH  082%=      5-min Rain = 0
KCH1 250733Z 14009KT 23/19 A2995 RMK A01 T02250192  RH  082%=      5-min Rain = 0
KCH1 250734Z 14009KT 23/19 A2995 RMK A01 T02250192  RH  082%=      5-min Rain = 0
KCH1 250735Z 13007KT 23/19 A2995 RMK A01 T02250192  RH  082%=      5-min Rain = 0
KCH1 250736Z 14007KT 23/19 A2995 RMK A01 T02250192  RH  082%=      5-min Rain = 0
KCH1 250737Z 14009KT 23/19 A2995 RMK A01 T02250192  RH  082%=      5-min Rain = 0
KCH1 250738Z 14010KT 23/19 A2995 RMK A01 T02250192  RH  082%=      5-min Rain = 0
KCH1 250739Z 13008KT 23/19 A2995 RMK A01 T02250193  RH  082%=      5-min Rain = 0
KCH1 250740Z 13010KT 23/19 A2995 RMK A01 T02250192  RH  082%=      5-min Rain = 0
KCH1 250741Z 14012KT 23/19 A2995 RMK A01 T02250192  RH  082%=      5-min Rain = 0
KCH1 250742Z 13009KT 23/19 A2995 RMK A01 T02250192  RH  082%=      5-min Rain = 0
KCH1 250743Z 13008KT 23/19 A2995 RMK A01 T02250192  RH  082%=      5-min Rain = 0
KCH1 250744Z 13007KT 23/19 A2995 RMK A01 T02250193  RH  082%=      5-min Rain = 0
KCH1 250745Z 13008KT 22/19 A2995 RMK A01 T02240193  RH  082%=      5-min Rain = 0
KCH1 250746Z 13008KT 22/19 A2995 RMK A01 T02240192  RH  082%=      5-min Rain = 0
KCH1 250747Z 13008KT 22/19 A2995 RMK A01 T02240193  RH  082%=      5-min Rain = 0
KCH1 250748Z 13007KT 22/19 A2995 RMK A01 T02240193  RH  082%=      5-min Rain = 0
KCH1 250749Z 13009KT 22/19 A2995 RMK A01 T02240193  RH  083%=      5-min Rain = 0
KCH1 250750Z 13010KT 22/19 A2994 RMK A01 T02240193  RH  083%=      5-min Rain = 0
KCH1 250751Z 14009KT 22/19 A2994 RMK A01 T02240193  RH  082%=      5-min Rain = 0
KCH1 250752Z 13007KT 22/19 A2994 RMK A01 T02240193  RH  083%=      5-min Rain = 0
KCH1 250753Z 13007KT 22/19 A2994 RMK A01 T02230193  RH  083%=      5-min Rain = 0
KCH1 250754Z 12007KT 22/19 A2994 RMK A01 T02230193  RH  083%=      5-min Rain = 0
KCH1 250755Z 13008KT 22/19 A2994 RMK A01 T02230193  RH  083%=      5-min Rain = 0
KCH1 250756Z 13009KT 22/19 A2994 RMK A01 T02230193  RH  083%=      5-min Rain = 0
KCH1 250757Z 13009KT 22/19 A2994 RMK A01 T02230192  RH  083%=      5-min Rain = 0
KCH1 250758Z 12009KT 22/19 A2994 RMK A01 T02230192  RH  083%=      5-min Rain = 0
KCH1 250759Z 12009KT 22/19 A2994 RMK A01 T02230193  RH  083%=      5-min Rain = 0
KCH1 250800Z 13009KT 22/19 A2994 RMK A01 T02230193  RH  083%=      5-min Rain = 0
KCH1 250801Z 13010KT 22/19 A2994 RMK A01 T02230193  RH  083%=      5-min Rain = 0
KCH1 250802Z 12009KT 22/19 A2994 RMK A01 T02230193  RH  083%=      5-min Rain = 0
KCH1 250803Z 13009KT 22/19 A2994 RMK A01 T02230193  RH  083%=      5-min Rain = 0
KCH1 250804Z 13008KT 22/19 A2994 RMK A01 T02230193  RH  083%=      5-min Rain = 0
KCH1 250805Z 12012KT 22/19 A2994 RMK A01 T02230193  RH  083%=      5-min Rain = 0
KCH1 250806Z 13009KT 22/19 A2994 RMK A01 T02230193  RH  083%=      5-min Rain = 0
KCH1 250807Z 13011KT 22/19 A2994 RMK A01 T02230193  RH  083%=      5-min Rain = 0
KCH1 250808Z 12009KT 22/19 A2994 RMK A01 T02230193  RH  083%=      5-min Rain = 0
KCH1 250809Z 12009KT 22/19 A2994 RMK A01 T02230193  RH  083%=      5-min Rain = 0
KCH1 250810Z 13008KT 22/19 A2994 RMK A01 T02230194  RH  084%=      5-min Rain = 0
KCH1 250811Z 12008KT 22/19 A2994 RMK A01 T02230194  RH  084%=      5-min Rain = 0
KCH1 250812Z 12010KT 22/19 A2994 RMK A01 T02220194  RH  084%=      5-min Rain = 0
KCH1 250813Z 12012KT 22/19 A2993 RMK A01 T02220193  RH  084%=      5-min Rain = 0
KCH1 250814Z 12008KT 22/19 A2993 RMK A01 T02220193  RH  084%=      5-min Rain = 0
KCH1 250815Z 12010KT 22/19 A2994 RMK A01 T02220193  RH  084%=      5-min Rain = 0
KCH1 250816Z 12009KT 22/19 A2994 RMK A01 T02230194  RH  084%=      5-min Rain = 0
KCH1 250817Z 12009G14KT 22/19 A2994 RMK A01 T02220194  RH  084%=      5-min Rain = 0
KCH1 250818Z 12010KT 22/19 A2994 RMK A01 T02220194  RH  084%=      5-min Rain = 0
KCH1 250819Z 12008KT 22/19 A2994 RMK A01 T02220194  RH  084%=      5-min Rain = 0
KCH1 250820Z 12008KT 22/19 A2994 RMK A01 T02220194  RH  084%=      5-min Rain = 0
KCH1 250821Z 11008KT 22/19 A2994 RMK A01 T02220194  RH  085%=      5-min Rain = 0
KCH1 250822Z 12008KT 22/19 A2994 RMK A01 T02210194  RH  085%=      5-min Rain = 0
KCH1 250823Z 12009KT 22/19 A2994 RMK A01 T02210194  RH  085%=      5-min Rain = 0
KCH1 250824Z 12009KT 22/19 A2994 RMK A01 T02210194  RH  085%=      5-min Rain = 0
KCH1 250825Z 12010KT 22/19 A2994 RMK A01 T02210194  RH  084%=      5-min Rain = 0
KCH1 250826Z 12007KT 22/19 A2994 RMK A01 T02210194  RH  084%=      5-min Rain = 0
KCH1 250827Z 11008KT 22/19 A2994 RMK A01 T02210194  RH  085%=      5-min Rain = 0
KCH1 250828Z 12009KT 22/19 A2994 RMK A01 T02210194  RH  085%=      5-min Rain = 0
KCH1 250829Z 12010KT 22/19 A2994 RMK A01 T02210194  RH  085%=      5-min Rain = 0
KCH1 250830Z 12008KT 22/19 A2994 RMK A01 T02210194  RH  085%=      5-min Rain = 0
KCH1 250831Z 12007KT 22/20 A2994 RMK A01 T02210195  RH  085%=      5-min Rain = 0
KCH1 250832Z 12008KT 22/20 A2994 RMK A01 T02210195  RH  085%=      5-min Rain = 0
KCH1 250833Z 12008KT 22/20 A2994 RMK A01 T02210195  RH  085%=      5-min Rain = 0
KCH1 250834Z 11008KT 22/20 A2994 RMK A01 T02210195  RH  085%=      5-min Rain = 0
KCH1 250835Z 12007KT 22/20 A2994 RMK A01 T02210195  RH  085%=      5-min Rain = 0
KCH1 250836Z 12008KT 22/20 A2994 RMK A01 T02210195  RH  085%=      5-min Rain = 0
KCH1 250837Z 12008KT 22/20 A2994 RMK A01 T02210195  RH  085%=      5-min Rain = 0
KCH1 250838Z 12007KT 22/20 A2994 RMK A01 T02210195  RH  085%=      5-min Rain = 0
KCH1 250839Z 12007KT 22/20 A2994 RMK A01 T02210195  RH  085%=      5-min Rain = 0
KCH1 250840Z 12007KT 22/20 A2995 RMK A01 T02200195  RH  086%=      5-min Rain = 0
KCH1 250841Z 12008KT 22/20 A2994 RMK A01 T02200195  RH  086%=      5-min Rain = 0
KCH1 250842Z 12007KT 22/20 A2994 RMK A01 T02200195  RH  086%=      5-min Rain = 0
KCH1 250843Z 12007KT 22/20 A2995 RMK A01 T02200195  RH  086%=      5-min Rain = 0
KCH1 250844Z 12007KT 22/20 A2995 RMK A01 T02200195  RH  086%=      5-min Rain = 0
KCH1 250845Z 12006KT 22/20 A2995 RMK A01 T02200195  RH  086%=      5-min Rain = 0
KCH1 250846Z 12005KT 22/20 A2995 RMK A01 T02200195  RH  086%=      5-min Rain = 0
KCH1 250847Z 11006KT 22/20 A2995 RMK A01 T02200195  RH  086%=      5-min Rain = 0
KCH1 250848Z 12005KT 22/20 A2995 RMK A01 T02190196  RH  086%=      5-min Rain = 0
KCH1 250849Z 11005KT 22/20 A2995 RMK A01 T02190196  RH  087%=      5-min Rain = 0
KCH1 250850Z 11007KT 22/20 A2995 RMK A01 T02190195  RH  087%=      5-min Rain = 0
KCH1 250851Z 11007KT 22/20 A2995 RMK A01 T02190195  RH  086%=      5-min Rain = 0
KCH1 250852Z 11006KT 22/20 A2995 RMK A01 T02190195  RH  087%=      5-min Rain = 0
KCH1 250853Z 11007KT 22/20 A2995 RMK A01 T02190196  RH  087%=      5-min Rain = 0
KCH1 250854Z 12008KT 22/20 A2995 RMK A01 T02190196  RH  087%=      5-min Rain = 0
KCH1 250855Z 11007KT 22/20 A2995 RMK A01 T02190195  RH  087%=      5-min Rain = 0
KCH1 250856Z 11006KT 22/20 A2995 RMK A01 T02190196  RH  087%=      5-min Rain = 0
KCH1 250857Z 12007KT 22/20 A2995 RMK A01 T02180196  RH  087%=      5-min Rain = 0
KCH1 250858Z 11005KT 22/20 A2995 RMK A01 T02180196  RH  087%=      5-min Rain = 0
KCH1 250859Z 11007KT 22/20 A2995 RMK A01 T02180196  RH  087%=      5-min Rain = 0
KCH1 250900Z 12008KT 22/20 A2995 RMK A01 T02180196  RH  087%=      5-min Rain = 0
KCH1 250901Z 12007KT 22/20 A2995 RMK A01 T02180196  RH  087%=      5-min Rain = 0
KCH1 250902Z 12008KT 22/20 A2995 RMK A01 T02180196  RH  087%=      5-min Rain = 0
KCH1 250903Z 11008KT 22/20 A2995 RMK A01 T02180196  RH  087%=      5-min Rain = 0
KCH1 250904Z 12008KT 22/20 A2994 RMK A01 T02180196  RH  088%=      5-min Rain = 0
KCH1 250905Z 11009KT 22/20 A2994 RMK A01 T02180196  RH  088%=      5-min Rain = 0
KCH1 250906Z 11006KT 22/20 A2994 RMK A01 T02180196  RH  088%=      5-min Rain = 0
KCH1 250907Z 11006KT 22/20 A2994 RMK A01 T02180196  RH  088%=      5-min Rain = 0
KCH1 250908Z 10008KT 22/20 A2994 RMK A01 T02180197  RH  088%=      5-min Rain = 0
KCH1 250909Z 10007KT 22/20 A2994 RMK A01 T02180196  RH  088%=      5-min Rain = 0
KCH1 250910Z 11009KT 22/20 A2994 RMK A01 T02180197  RH  088%=      5-min Rain = 0
KCH1 250911Z 11008KT 22/20 A2994 RMK A01 T02180197  RH  088%=      5-min Rain = 0
KCH1 250912Z 11007KT 22/20 A2994 RMK A01 T02180197  RH  088%=      5-min Rain = 0
KCH1 250913Z 11009KT 22/20 A2994 RMK A01 T02180197  RH  088%=      5-min Rain = 0
KCH1 250914Z 11009KT 22/20 A2994 RMK A01 T02180197  RH  088%=      5-min Rain = 0
KCH1 250915Z 10008KT 22/20 A2994 RMK A01 T02180197  RH  088%=      5-min Rain = 0
KCH1 250916Z 11008KT 22/20 A2994 RMK A01 T02180197  RH  088%=      5-min Rain = 0
KCH1 250917Z 11010KT 22/20 A2994 RMK A01 T02180197  RH  088%=      5-min Rain = 0
KCH1 250918Z 11009KT 22/20 A2994 RMK A01 T02180197  RH  088%=      5-min Rain = 0
KCH1 250919Z 11010KT 22/20 A2994 RMK A01 T02180197  RH  088%=      5-min Rain = 0
KCH1 250920Z 11009KT 22/20 A2994 RMK A01 T02180196  RH  088%=      5-min Rain = 0
KCH1 250921Z 11007KT 22/20 A2994 RMK A01 T02180196  RH  088%=      5-min Rain = 0
KCH1 250922Z 11009KT 22/20 A2994 RMK A01 T02180197  RH  088%=      5-min Rain = 0
KCH1 250923Z 11009KT 22/20 A2994 RMK A01 T02180197  RH  088%=      5-min Rain = 0
KCH1 250924Z 12010KT 22/20 A2994 RMK A01 T02180197  RH  088%=      5-min Rain = 0
KCH1 250925Z 11009KT 22/20 A2994 RMK A01 T02180197  RH  088%=      5-min Rain = 0
KCH1 250926Z 11008KT 22/20 A2994 RMK A01 T02180197  RH  088%=      5-min Rain = 0
KCH1 250927Z 12008KT 22/20 A2994 RMK A01 T02180197  RH  088%=      5-min Rain = 0
KCH1 250928Z 12008KT 22/20 A2994 RMK A01 T02180197  RH  088%=      5-min Rain = 0
KCH1 250929Z 12009KT 22/20 A2994 RMK A01 T02180197  RH  088%=      5-min Rain = 0
KCH1 250930Z 11010KT 22/20 A2994 RMK A01 T02180197  RH  088%=      5-min Rain = 0
KCH1 250931Z 12009KT 22/20 A2994 RMK A01 T02180197  RH  088%=      5-min Rain = 0
KCH1 250932Z 11009G14KT 22/20 A2994 RMK A01 T02180197  RH  088%=      5-min Rain = 0
KCH1 250933Z 12009KT 22/20 A2994 RMK A01 T02180197  RH  088%=      5-min Rain = 0
KCH1 250934Z 11008KT 22/20 A2994 RMK A01 T02180197  RH  088%=      5-min Rain = 0
KCH1 250935Z 12010G15KT 22/20 A2994 RMK A01 T02180198  RH  088%=      5-min Rain = 0
KCH1 250936Z 12010KT 22/20 A2994 RMK A01 T02180197  RH  088%=      5-min Rain = 0
KCH1 250937Z 12010KT 22/20 A2994 RMK A01 T02180197  RH  088%=      5-min Rain = 0
KCH1 250938Z 12012KT 22/20 A2994 RMK A01 T02180197  RH  088%=      5-min Rain = 0
KCH1 250939Z 12008KT 22/20 A2994 RMK A01 T02180197  RH  088%=      5-min Rain = 0
KCH1 250940Z 12012KT 22/20 A2994 RMK A01 T02180197  RH  088%=      5-min Rain = 0
KCH1 250941Z 12011KT 22/20 A2994 RMK A01 T02180197  RH  088%=      5-min Rain = 0
KCH1 250942Z 12008KT 22/20 A2994 RMK A01 T02180197  RH  088%=      5-min Rain = 0
KCH1 250943Z 11010KT 22/20 A2994 RMK A01 T02180197  RH  088%=      5-min Rain = 0
KCH1 250944Z 11011KT 22/20 A2994 RMK A01 T02180198  RH  088%=      5-min Rain = 0
KCH1 250945Z 12010KT 22/20 A2994 RMK A01 T02180198  RH  088%=      5-min Rain = 0
KCH1 250946Z 11011KT 22/20 A2994 RMK A01 T02170197  RH  088%=      5-min Rain = 0
KCH1 250947Z 12010KT 22/20 A2994 RMK A01 T02170197  RH  088%=      5-min Rain = 0
KCH1 250948Z 11010KT 22/20 A2994 RMK A01 T02180198  RH  088%=      5-min Rain = 0
KCH1 250949Z 12008KT 22/20 A2994 RMK A01 T02170197  RH  088%=      5-min Rain = 0
KCH1 250950Z 12011KT 22/20 A2995 RMK A01 T02170198  RH  089%=      5-min Rain = 0
KCH1 250951Z 11010KT 22/20 A2995 RMK A01 T02170197  RH  088%=      5-min Rain = 0
KCH1 250952Z 12008KT 22/20 A2995 RMK A01 T02170197  RH  089%=      5-min Rain = 0
KCH1 250953Z 11010KT 22/20 A2995 RMK A01 T02170198  RH  089%=      5-min Rain = 0
KCH1 250954Z 11010KT 22/20 A2995 RMK A01 T02160197  RH  089%=      5-min Rain = 0
KCH1 250955Z 11009KT 22/20 A2995 RMK A01 T02160197  RH  089%=      5-min Rain = 0
KCH1 250956Z 11009KT 22/20 A2995 RMK A01 T02160197  RH  089%=      5-min Rain = 0
KCH1 250957Z 11010KT 22/20 A2995 RMK A01 T02160197  RH  089%=      5-min Rain = 0
KCH1 250958Z 12008KT 22/20 A2995 RMK A01 T02160197  RH  089%=      5-min Rain = 0
KCH1 250959Z 11008KT 22/20 A2995 RMK A01 T02160197  RH  089%=      5-min Rain = 0
KCH1 251000Z 12008KT 22/20 A2995 RMK A01 T02170198  RH  089%=      5-min Rain = 0
KCH1 251001Z 12010KT 22/20 A2995 RMK A01 T02160197  RH  089%=      5-min Rain = 0
KCH1 251002Z 11009KT 22/20 A2995 RMK A01 T02170198  RH  089%=      5-min Rain = 0
KCH1 251003Z 12009KT 22/20 A2995 RMK A01 T02160197  RH  089%=      5-min Rain = 0
KCH1 251004Z 11009KT 22/20 A2995 RMK A01 T02160198  RH  089%=      5-min Rain = 0
KCH1 251005Z 11007KT 22/20 A2995 RMK A01 T02160197  RH  089%=      5-min Rain = 0
KCH1 251006Z 11008KT 22/20 A2996 RMK A01 T02160197  RH  089%=      5-min Rain = 0
KCH1 251007Z 11008KT 22/20 A2996 RMK A01 T02160197  RH  089%=      5-min Rain = 0
KCH1 251008Z 10007KT 22/20 A2996 RMK A01 T02160198  RH  089%=      5-min Rain = 0
KCH1 251009Z 11007KT 22/20 A2996 RMK A01 T02150197  RH  089%=      5-min Rain = 0
KCH1 251010Z 11007KT 22/20 A2996 RMK A01 T02160198  RH  089%=      5-min Rain = 0
KCH1 251011Z 11008KT 22/20 A2996 RMK A01 T02150197  RH  090%=      5-min Rain = 0
KCH1 251012Z 11009KT 22/20 A2996 RMK A01 T02150198  RH  090%=      5-min Rain = 0
KCH1 251013Z 12009KT 22/20 A2996 RMK A01 T02150197  RH  090%=      5-min Rain = 0
KCH1 251014Z 11008KT 22/20 A2996 RMK A01 T02150197  RH  089%=      5-min Rain = 0
KCH1 251015Z 12008KT 22/20 A2996 RMK A01 T02150197  RH  090%=      5-min Rain = 0
KCH1 251016Z 11008KT 22/20 A2996 RMK A01 T02150197  RH  090%=      5-min Rain = 0
KCH1 251017Z 11007KT 22/20 A2996 RMK A01 T02150197  RH  090%=      5-min Rain = 0
KCH1 251018Z 11008KT 22/20 A2996 RMK A01 T02150197  RH  090%=      5-min Rain = 0
KCH1 251019Z 11008KT 22/20 A2996 RMK A01 T02150198  RH  090%=      5-min Rain = 0
KCH1 251020Z 11008KT 21/20 A2996 RMK A01 T02140197  RH  090%=      5-min Rain = 0
KCH1 251021Z 12009KT 21/20 A2996 RMK A01 T02140197  RH  090%=      5-min Rain = 0
KCH1 251022Z 11008KT 21/20 A2996 RMK A01 T02140197  RH  090%=      5-min Rain = 0
KCH1 251023Z 12008KT 21/20 A2996 RMK A01 T02140197  RH  090%=      5-min Rain = 0
KCH1 251024Z 12007KT 21/20 A2996 RMK A01 T02140197  RH  090%=      5-min Rain = 0
KCH1 251025Z 12007KT 21/20 A2996 RMK A01 T02140197  RH  090%=      5-min Rain = 0
KCH1 251026Z 11007KT 21/20 A2996 RMK A01 T02140198  RH  090%=      5-min Rain = 0
KCH1 251027Z 12007KT 21/20 A2996 RMK A01 T02140197  RH  090%=      5-min Rain = 0
KCH1 251028Z 11007KT 21/20 A2996 RMK A01 T02140197  RH  090%=      5-min Rain = 0
KCH1 251029Z 12007KT 21/20 A2996 RMK A01 T02140198  RH  090%=      5-min Rain = 0
KCH1 251030Z 11007KT 21/20 A2996 RMK A01 T02140197  RH  090%=      5-min Rain = 0
KCH1 251031Z 12010KT 21/20 A2996 RMK A01 T02130197  RH  090%=      5-min Rain = 0
KCH1 251032Z 11008KT 21/20 A2996 RMK A01 T02140197  RH  090%=      5-min Rain = 0
KCH1 251033Z 11009KT 21/20 A2996 RMK A01 T02140197  RH  090%=      5-min Rain = 0
KCH1 251034Z 11006KT 21/20 A2996 RMK A01 T02140197  RH  090%=      5-min Rain = 0
KCH1 251035Z 11007KT 21/20 A2996 RMK A01 T02130197  RH  091%=      5-min Rain = 0
KCH1 251036Z 12009KT 21/20 A2996 RMK A01 T02130197  RH  091%=      5-min Rain = 0
KCH1 251037Z 11008KT 21/20 A2996 RMK A01 T02130197  RH  090%=      5-min Rain = 0
KCH1 251038Z 12009KT 21/20 A2996 RMK A01 T02130197  RH  090%=      5-min Rain = 0
KCH1 251039Z 11008KT 21/20 A2996 RMK A01 T02130197  RH  090%=      5-min Rain = 0
KCH1 251040Z 12007KT 21/20 A2996 RMK A01 T02130197  RH  090%=      5-min Rain = 0
KCH1 251041Z 11007KT 21/20 A2996 RMK A01 T02130197  RH  090%=      5-min Rain = 0
KCH1 251042Z 11009KT 21/20 A2996 RMK A01 T02130197  RH  090%=      5-min Rain = 0
KCH1 251043Z 12008KT 21/20 A2996 RMK A01 T02130197  RH  090%=      5-min Rain = 0
KCH1 251044Z 11008KT 21/20 A2996 RMK A01 T02130196  RH  090%=      5-min Rain = 0
KCH1 251045Z 11007KT 21/20 A2997 RMK A01 T02130196  RH  090%=      5-min Rain = 0
KCH1 251046Z 12009KT 21/20 A2997 RMK A01 T02130197  RH  090%=      5-min Rain = 0
KCH1 251047Z 12006KT 21/20 A2997 RMK A01 T02130197  RH  090%=      5-min Rain = 0
KCH1 251048Z 11009KT 21/20 A2997 RMK A01 T02130197  RH  090%=      5-min Rain = 0
KCH1 251049Z 11007KT 21/20 A2997 RMK A01 T02130196  RH  090%=      5-min Rain = 0
KCH1 251050Z 11008KT 21/20 A2997 RMK A01 T02130196  RH  090%=      5-min Rain = 0
KCH1 251051Z 12006KT 21/20 A2997 RMK A01 T02130196  RH  090%=      5-min Rain = 0
KCH1 251052Z 13009KT 21/20 A2997 RMK A01 T02130197  RH  090%=      5-min Rain = 0
KCH1 251053Z 12010KT 21/20 A2997 RMK A01 T02130196  RH  090%=      5-min Rain = 0
KCH1 251054Z 12009KT 21/20 A2997 RMK A01 T02130196  RH  090%=      5-min Rain = 0
KCH1 251055Z 12009KT 21/20 A2997 RMK A01 T02130196  RH  090%=      5-min Rain = 0
KCH1 251056Z 12007KT 21/20 A2997 RMK A01 T02130196  RH  090%=      5-min Rain = 0
KCH1 251057Z 12008KT 21/20 A2997 RMK A01 T02130196  RH  090%=      5-min Rain = 0
KCH1 251058Z 12007KT 21/20 A2997 RMK A01 T02130197  RH  090%=      5-min Rain = 0
KCH1 251059Z 12008KT 21/20 A2997 RMK A01 T02120196  RH  091%=      5-min Rain = 0
KCH1 251100Z 12009KT 21/20 A2997 RMK A01 T02120196  RH  090%=      5-min Rain = 0
KCH1 251101Z 12007KT 21/20 A2997 RMK A01 T02120197  RH  091%=      5-min Rain = 0
KCH1 251102Z 12009KT 21/20 A2997 RMK A01 T02120196  RH  091%=      5-min Rain = 0
KCH1 251103Z 12009KT 21/20 A2997 RMK A01 T02120196  RH  090%=      5-min Rain = 0
KCH1 251104Z 12007KT 21/20 A2997 RMK A01 T02120196  RH  090%=      5-min Rain = 0
KCH1 251105Z 12007KT 21/20 A2997 RMK A01 T02120196  RH  090%=      5-min Rain = 0
KCH1 251106Z 12006KT 21/20 A2997 RMK A01 T02120196  RH  091%=      5-min Rain = 0
KCH1 251107Z 11008KT 21/20 A2997 RMK A01 T02120196  RH  091%=      5-min Rain = 0
KCH1 251108Z 12007KT 21/20 A2997 RMK A01 T02120196  RH  091%=      5-min Rain = 0
KCH1 251109Z 11009KT 21/20 A2997 RMK A01 T02120196  RH  091%=      5-min Rain = 0
KCH1 251110Z 12010KT 21/20 A2997 RMK A01 T02120196  RH  091%=      5-min Rain = 0
KCH1 251111Z 12007KT 21/20 A2997 RMK A01 T02120196  RH  091%=      5-min Rain = 0
KCH1 251112Z 12007KT 21/20 A2998 RMK A01 T02120196  RH  091%=      5-min Rain = 0
KCH1 251113Z 11009KT 21/20 A2998 RMK A01 T02120196  RH  091%=      5-min Rain = 0
KCH1 251114Z 13008KT 21/20 A2998 RMK A01 T02120196  RH  091%=      5-min Rain = 0
KCH1 251115Z 12008KT 21/20 A2998 RMK A01 T02120196  RH  091%=      5-min Rain = 0
KCH1 251116Z 12006KT 21/20 A2998 RMK A01 T02120196  RH  091%=      5-min Rain = 0
KCH1 251117Z 11006KT 21/20 A2998 RMK A01 T02120197  RH  091%=      5-min Rain = 0
KCH1 251118Z 12008KT 21/20 A2998 RMK A01 T02120197  RH  091%=      5-min Rain = 0
KCH1 251119Z 12007KT 21/20 A2998 RMK A01 T02120197  RH  091%=      5-min Rain = 0
KCH1 251120Z 12008KT 21/20 A2998 RMK A01 T02120197  RH  091%=      5-min Rain = 0
KCH1 251121Z 12008KT 21/20 A2998 RMK A01 T02120196  RH  091%=      5-min Rain = 0
KCH1 251122Z 12010KT 21/20 A2998 RMK A01 T02120196  RH  091%=      5-min Rain = 0
KCH1 251123Z 12007G12KT 21/20 A2998 RMK A01 T02120196  RH  091%=      5-min Rain = 0
KCH1 251124Z 12006KT 21/20 A2998 RMK A01 T02120197  RH  091%=      5-min Rain = 0
KCH1 251125Z 11010KT 21/20 A2998 RMK A01 T02110197  RH  092%=      5-min Rain = 0
KCH1 251126Z 12010KT 21/20 A2998 RMK A01 T02110197  RH  091%=      5-min Rain = 0
KCH1 251127Z 12008KT 21/20 A2998 RMK A01 T02110197  RH  091%=      5-min Rain = 0
KCH1 251128Z 12007KT 21/20 A2998 RMK A01 T02110197  RH  092%=      5-min Rain = 0
KCH1 251129Z 11009KT 21/20 A2998 RMK A01 T02110197  RH  092%=      5-min Rain = 0
KCH1 251130Z 12008KT 21/20 A2998 RMK A01 T02110197  RH  092%=      5-min Rain = 0
KCH1 251131Z 12009KT 21/20 A2998 RMK A01 T02110197  RH  092%=      5-min Rain = 0
KCH1 251132Z 12010KT 21/20 A2998 RMK A01 T02110198  RH  092%=      5-min Rain = 0
KCH1 251133Z 12009KT 21/20 A2998 RMK A01 T02110198  RH  092%=      5-min Rain = 0
KCH1 251134Z 12010KT 21/20 A2998 RMK A01 T02110197  RH  092%=      5-min Rain = 0
KCH1 251135Z 12011KT 21/20 A2998 RMK A01 T02110197  RH  092%=      5-min Rain = 0
KCH1 251136Z 12008KT 21/20 A2998 RMK A01 T02110197  RH  092%=      5-min Rain = 0
KCH1 251137Z 12008KT 21/20 A2998 RMK A01 T02110198  RH  092%=      5-min Rain = 0
KCH1 251138Z 11010KT 21/20 A2998 RMK A01 T02110198  RH  092%=      5-min Rain = 0
KCH1 251139Z 12008KT 21/20 A2998 RMK A01 T02110198  RH  092%=      5-min Rain = 0
KCH1 251140Z 11009KT 21/20 A2999 RMK A01 T02100198  RH  093%=      5-min Rain = 0
KCH1 251141Z 12009KT 21/20 A2999 RMK A01 T02100198  RH  093%=      5-min Rain = 0
KCH1 251142Z 11008KT 21/20 A2999 RMK A01 T02100198  RH  093%=      5-min Rain = 0
KCH1 251143Z 12008KT 21/20 A2999 RMK A01 T02100199  RH  093%=      5-min Rain = 0
KCH1 251144Z 12007KT 21/20 A2999 RMK A01 T02090199  RH  094%=      5-min Rain = 0
KCH1 251145Z 11012KT 21/20 A2999 RMK A01 T02090199  RH  094%=      5-min Rain = 0
KCH1 251146Z 12009KT 21/20 A2999 RMK A01 T02090199  RH  094%=      5-min Rain = 0
KCH1 251147Z 11010KT 21/20 A2999 RMK A01 T02090200  RH  095%=      5-min Rain = 0
KCH1 251148Z 12008KT 21/20 A2999 RMK A01 T02080200  RH  095%=      5-min Rain = 0
KCH1 251149Z 12010KT 21/20 A2999 RMK A01 T02080200  RH  095%=      5-min Rain = 0
KCH1 251150Z 12010KT 21/20 A2999 RMK A01 T02080200  RH  095%=      5-min Rain = 0
KCH1 251151Z 11008KT 21/20 A2999 RMK A01 T02080200  RH  095%=      5-min Rain = 0
KCH1 251152Z 11008KT 21/20 A2999 RMK A01 T02080201  RH  096%=      5-min Rain = 0
KCH1 251153Z 11007KT 21/20 A2999 RMK A01 T02070200  RH  096%=      5-min Rain = 0
KCH1 251154Z 11007KT 21/20 A2999 RMK A01 T02070201  RH  096%=      5-min Rain = 0
KCH1 251155Z 12007KT 21/20 A2999 RMK A01 T02070201  RH  096%=      5-min Rain = 0
KCH1 251156Z 11008KT 21/20 A2999 RMK A01 T02070201  RH  096%=      5-min Rain = 0
KCH1 251157Z 11010KT 21/20 A2999 RMK A01 T02070201  RH  097%=      5-min Rain = 0
KCH1 251158Z 11009KT 21/20 A2999 RMK A01 T02070201  RH  097%=      5-min Rain = 0
KCH1 251159Z 11009KT 21/20 A2999 RMK A01 T02070201  RH  097%=      5-min Rain = 0
KCH1 251200Z 11009KT 21/20 A2999 RMK A01 T02070201  RH  097%=      5-min Rain = 0
KCH1 251201Z 12007KT 21/20 A2999 RMK A01 T02070201  RH  097%=      5-min Rain = 0
KCH1 251202Z 12007KT 21/20 A2999 RMK A01 T02070201  RH  097%=      5-min Rain = 0
KCH1 251203Z 11009KT 21/20 A30 RMK A01 T02060202  RH  097%=      5-min Rain = 0
KCH1 251204Z 12010KT 21/20 A30 RMK A01 T02060202  RH  097%=      5-min Rain = 0
KCH1 251205Z 12011KT 21/20 A30 RMK A01 T02060201  RH  097%=      5-min Rain = 0
KCH1 251206Z 11011KT 21/20 A30 RMK A01 T02060201  RH  097%=      5-min Rain = 0
KCH1 251207Z 12008KT 21/20 A30 RMK A01 T02060201  RH  097%=      5-min Rain = 0
KCH1 251208Z 11011KT 21/20 A30 RMK A01 T02060202  RH  097%=      5-min Rain = 0
KCH1 251209Z 12009KT 21/20 A30 RMK A01 T02060202  RH  097%=      5-min Rain = 0
KCH1 251210Z 12007KT 21/20 A30 RMK A01 T02060202  RH  098%=      5-min Rain = 0
KCH1 251211Z 12010KT 21/20 A30 RMK A01 T02060202  RH  098%=      5-min Rain = 0
KCH1 251212Z 12009KT 21/20 A30 RMK A01 T02050202  RH  098%=      5-min Rain = 0
KCH1 251213Z 12008KT 21/20 A30 RMK A01 T02060203  RH  098%=      5-min Rain = 0
KCH1 251214Z 12007KT 21/20 A30 RMK A01 T02050203  RH  098%=      5-min Rain = 0
KCH1 251215Z 13009KT 21/20 A30 RMK A01 T02050202  RH  098%=      5-min Rain = 0
KCH1 251216Z 12008KT 21/20 A30 RMK A01 T02050203  RH  099%=      5-min Rain = 0
KCH1 251217Z 12009KT 21/20 A30 RMK A01 T02050203  RH  099%=      5-min Rain = 0
KCH1 251218Z 12010KT 21/20 A30 RMK A01 T02050203  RH  099%=      5-min Rain = 0
KCH1 251219Z 12008KT 21/20 A30 RMK A01 T02050203  RH  099%=      5-min Rain = 0
KCH1 251220Z 13006KT 21/20 A3001 RMK A01 T02050203  RH  099%=      5-min Rain = 0
KCH1 251221Z 13008KT 21/20 A3001 RMK A01 T02050203  RH  099%=      5-min Rain = 0
KCH1 251222Z 12007KT 21/20 A3001 RMK A01 T02050204  RH  099%=      5-min Rain = 0
KCH1 251223Z 12007KT 21/20 A3001 RMK A01 T02050204  RH  099%=      5-min Rain = 0
KCH1 251224Z 13009KT 20/20 A3001 RMK A01 T02040204  RH  099%=      5-min Rain = 0
KCH1 251225Z 13010KT 20/20 A3001 RMK A01 T02040203  RH  099%=      5-min Rain = 0
KCH1 251226Z 12008KT 21/20 A3001 RMK A01 T02050204  RH  099%=      5-min Rain = 0
KCH1 251227Z 12009KT 20/20 A3001 RMK A01 T02040204  RH  099%=      5-min Rain = 0
KCH1 251228Z 12009KT 20/20 A3001 RMK A01 T02040204  RH  099%=      5-min Rain = 0
KCH1 251229Z 12009KT 21/20 A3001 RMK A01 T02050204  RH  100%=      5-min Rain = 0
KCH1 251230Z 12009KT 20/20 A3001 RMK A01 T02040204  RH  100%=      5-min Rain = 0
KCH1 251231Z 12009KT 20/20 A3001 RMK A01 T02040204  RH  100%=      5-min Rain = 0
KCH1 251232Z 12010KT 20/20 A3001 RMK A01 T02040204  RH  100%=      5-min Rain = 0
KCH1 251233Z 12009KT 20/20 A3001 RMK A01 T02040204  RH  100%=      5-min Rain = 0
KCH1 251234Z 12009KT 20/20 A3001 RMK A01 T02040204  RH  100%=      5-min Rain = 0
KCH1 251235Z 11008KT 20/20 A3001 RMK A01 T02040204  RH  100%=      5-min Rain = 0
KCH1 251236Z 12009KT 20/20 A3001 RMK A01 T02040204  RH  100%=      5-min Rain = 0
KCH1 251237Z 12010KT 20/20 A3001 RMK A01 T02040204  RH  100%=      5-min Rain = 0
KCH1 251238Z 12009KT 20/20 A3001 RMK A01 T02040204  RH  100%=      5-min Rain = 0
KCH1 251239Z 12008KT 20/20 A3001 RMK A01 T02040204  RH  100%=      5-min Rain = 0
KCH1 251240Z 12008KT 20/20 A3001 RMK A01 T02040204  RH  100%=      5-min Rain = 0
KCH1 251241Z 13009KT 20/20 A3001 RMK A01 T02040204  RH  100%=      5-min Rain = 0.01
KCH1 251242Z 12007KT 20/20 A3002 RMK A01 T02040204  RH  100%=      5-min Rain = 0
KCH1 251243Z 13008KT 20/20 A3002 RMK A01 T02040204  RH  100%=      5-min Rain = 0
KCH1 251244Z 13008KT 20/20 A3002 RMK A01 T02040204  RH  100%=      5-min Rain = 0
KCH1 251245Z 12009G14KT 20/20 A3002 RMK A01 T02040204  RH  100%=      5-min Rain = 0
KCH1 251246Z 12009KT 20/20 A3002 RMK A01 T02040204  RH  100%=      5-min Rain = 0
KCH1 251247Z 12007KT 20/21 A3002 RMK A01 T02040205  RH  100%=      5-min Rain = 0
KCH1 251248Z 12008KT 20/20 A3002 RMK A01 T02040204  RH  100%=      5-min Rain = 0
KCH1 251249Z 13010KT 20/20 A3002 RMK A01 T02040204  RH  100%=      5-min Rain = 0
KCH1 251250Z 13008KT 20/20 A3002 RMK A01 T02040204  RH  100%=      5-min Rain = 0
KCH1 251251Z 12008KT 20/20 A3002 RMK A01 T02040204  RH  100%=      5-min Rain = 0
KCH1 251252Z 13008KT 20/21 A3002 RMK A01 T02040205  RH  100%=      5-min Rain = 0
KCH1 251253Z 12006KT 21/21 A3002 RMK A01 T02050205  RH  100%=      5-min Rain = 0
KCH1 251254Z 13007KT 20/21 A3002 RMK A01 T02040205  RH  100%=      5-min Rain = 0
KCH1 251255Z 12007KT 20/21 A3002 RMK A01 T02040205  RH  100%=      5-min Rain = 0
KCH1 251256Z 12008KT 20/21 A3002 RMK A01 T02040205  RH  100%=      5-min Rain = 0
KCH1 251257Z 12007KT 21/21 A3002 RMK A01 T02050205  RH  100%=      5-min Rain = 0
KCH1 251258Z 12007KT 21/21 A3002 RMK A01 T02050205  RH  100%=      5-min Rain = 0
KCH1 251259Z 13005KT 21/21 A3002 RMK A01 T02050205  RH  100%=      5-min Rain = 0
KCH1 251300Z 13008KT 21/21 A3002 RMK A01 T02050205  RH  100%=      5-min Rain = 0
KCH1 251301Z 13008KT 21/21 A3002 RMK A01 T02050205  RH  100%=      5-min Rain = 0
KCH1 251302Z 13008KT 21/21 A3002 RMK A01 T02050205  RH  100%=      5-min Rain = 0
KCH1 251303Z 13008KT 21/21 A3002 RMK A01 T02050205  RH  100%=      5-min Rain = 0
KCH1 251304Z 13007KT 21/21 A3002 RMK A01 T02050205  RH  100%=      5-min Rain = 0
KCH1 251305Z 13007KT 21/21 A3002 RMK A01 T02050206  RH  100%=      5-min Rain = 0
KCH1 251306Z 12008KT 21/21 A3002 RMK A01 T02050205  RH  100%=      5-min Rain = 0
KCH1 251307Z 12007KT 21/21 A3002 RMK A01 T02060206  RH  100%=      5-min Rain = 0
KCH1 251308Z 12007KT 21/21 A3002 RMK A01 T02060206  RH  100%=      5-min Rain = 0
KCH1 251309Z 13006KT 21/21 A3002 RMK A01 T02060206  RH  100%=      5-min Rain = 0
KCH1 251310Z 13008KT 21/21 A3002 RMK A01 T02060206  RH  100%=      5-min Rain = 0
KCH1 251311Z 12007KT 21/21 A3002 RMK A01 T02060206  RH  100%=      5-min Rain = 0
KCH1 251312Z 13008KT 21/21 A3002 RMK A01 T02060206  RH  100%=      5-min Rain = 0
KCH1 251313Z 13009KT 21/21 A3002 RMK A01 T02060206  RH  100%=      5-min Rain = 0
KCH1 251314Z 13008KT 21/21 A3002 RMK A01 T02070207  RH  100%=      5-min Rain = 0
KCH1 251315Z 13008KT 21/21 A3002 RMK A01 T02070207  RH  100%=      5-min Rain = 0
KCH1 251316Z 13008KT 21/21 A3002 RMK A01 T02070207  RH  100%=      5-min Rain = 0
KCH1 251317Z 13008KT 21/21 A3002 RMK A01 T02070207  RH  100%=      5-min Rain = 0
KCH1 251318Z 12009KT 21/21 A3002 RMK A01 T02070207  RH  100%=      5-min Rain = 0
KCH1 251319Z 12009KT 21/21 A3002 RMK A01 T02070207  RH  100%=      5-min Rain = 0
KCH1 251320Z 13007KT 21/21 A3002 RMK A01 T02070207  RH  100%=      5-min Rain = 0
KCH1 251321Z 13007KT 21/21 A3002 RMK A01 T02070207  RH  100%=      5-min Rain = 0
KCH1 251322Z 13008KT 21/21 A3003 RMK A01 T02070207  RH  100%=      5-min Rain = 0
KCH1 251323Z 13009KT 21/21 A3003 RMK A01 T02070208  RH  100%=      5-min Rain = 0
KCH1 251324Z 12009KT 21/21 A3003 RMK A01 T02070207  RH  100%=      5-min Rain = 0
KCH1 251325Z 13008KT 21/21 A3003 RMK A01 T02070208  RH  100%=      5-min Rain = 0
KCH1 251326Z 13008KT 21/21 A3003 RMK A01 T02070207  RH  100%=      5-min Rain = 0
KCH1 251327Z 13008KT 21/21 A3003 RMK A01 T02070207  RH  100%=      5-min Rain = 0
KCH1 251328Z 13008KT 21/21 A3003 RMK A01 T02070207  RH  100%=      5-min Rain = 0
KCH1 251329Z 13007KT 21/21 A3003 RMK A01 T02080208  RH  100%=      5-min Rain = 0
KCH1 251330Z 13007KT 21/21 A3003 RMK A01 T02080208  RH  100%=      5-min Rain = 0
KCH1 251331Z 12008KT 21/21 A3003 RMK A01 T02080208  RH  100%=      5-min Rain = 0
KCH1 251332Z 13008G13KT 21/21 A3003 RMK A01 T02080208  RH  100%=      5-min Rain = 0
KCH1 251333Z 13009KT 21/21 A3003 RMK A01 T02080208  RH  100%=      5-min Rain = 0
KCH1 251334Z 12007KT 21/21 A3003 RMK A01 T02080208  RH  100%=      5-min Rain = 0
KCH1 251335Z 12009KT 21/21 A3003 RMK A01 T02080209  RH  100%=      5-min Rain = 0
KCH1 251336Z 13009KT 21/21 A3003 RMK A01 T02080208  RH  100%=      5-min Rain = 0
KCH1 251337Z 12006KT 21/21 A3003 RMK A01 T02080208  RH  100%=      5-min Rain = 0
KCH1 251338Z 12009KT 21/21 A3003 RMK A01 T02090209  RH  100%=      5-min Rain = 0
KCH1 251339Z 12009KT 21/21 A3003 RMK A01 T02090209  RH  100%=      5-min Rain = 0
KCH1 251340Z 13009KT 21/21 A3003 RMK A01 T02090209  RH  100%=      5-min Rain = 0
KCH1 251341Z 12008KT 21/21 A3003 RMK A01 T02090209  RH  100%=      5-min Rain = 0
KCH1 251342Z 12009KT 21/21 A3003 RMK A01 T02090209  RH  100%=      5-min Rain = 0
KCH1 251343Z 12010KT 21/21 A3003 RMK A01 T02100209  RH  100%=      5-min Rain = 0
KCH1 251344Z 12010KT 21/21 A3003 RMK A01 T02100209  RH  100%=      5-min Rain = 0
KCH1 251345Z 13008KT 21/21 A3003 RMK A01 T02100209  RH  100%=      5-min Rain = 0
KCH1 251346Z 12008KT 21/21 A3003 RMK A01 T02100210  RH  100%=      5-min Rain = 0
KCH1 251347Z 13011KT 21/21 A3003 RMK A01 T02100209  RH  100%=      5-min Rain = 0
KCH1 251348Z 13010KT 21/21 A3003 RMK A01 T02100209  RH  099%=      5-min Rain = 0
KCH1 251349Z 13010KT 21/21 A3003 RMK A01 T02100208  RH  099%=      5-min Rain = 0
KCH1 251350Z 13009KT 21/21 A3003 RMK A01 T02100209  RH  099%=      5-min Rain = 0
KCH1 251351Z 14010KT 21/21 A3003 RMK A01 T02100209  RH  099%=      5-min Rain = 0
KCH1 251352Z 13008KT 21/21 A3003 RMK A01 T02110209  RH  099%=      5-min Rain = 0
KCH1 251353Z 14007KT 21/21 A3003 RMK A01 T02110210  RH  099%=      5-min Rain = 0
KCH1 251354Z 14009KT 21/21 A3003 RMK A01 T02110210  RH  099%=      5-min Rain = 0
KCH1 251355Z 14010KT 21/21 A3003 RMK A01 T02110210  RH  099%=      5-min Rain = 0
KCH1 251356Z 13010KT 21/21 A3003 RMK A01 T02110210  RH  099%=      5-min Rain = 0
KCH1 251357Z 13008KT 21/21 A3003 RMK A01 T02110209  RH  099%=      5-min Rain = 0
KCH1 251358Z 13008G15KT 21/21 A3003 RMK A01 T02120210  RH  099%=      5-min Rain = 0
KCH1 251359Z 13012KT 21/21 A3003 RMK A01 T02110209  RH  099%=      5-min Rain = 0
KCH1 251400Z 13010KT 21/21 A3003 RMK A01 T02110209  RH  098%=      5-min Rain = 0
KCH1 251401Z 13009KT 21/21 A3003 RMK A01 T02120209  RH  098%=      5-min Rain = 0
KCH1 251402Z 13009KT 21/21 A3003 RMK A01 T02120209  RH  098%=      5-min Rain = 0
KCH1 251403Z 13010KT 21/21 A3003 RMK A01 T02120209  RH  098%=      5-min Rain = 0
KCH1 251404Z 13011KT 21/21 A3003 RMK A01 T02120209  RH  098%=      5-min Rain = 0
KCH1 251405Z 12011KT 21/21 A3003 RMK A01 T02120208  RH  097%=      5-min Rain = 0
KCH1 251406Z 12009KT 21/21 A3003 RMK A01 T02130209  RH  097%=      5-min Rain = 0
KCH1 251407Z 13009KT 21/21 A3003 RMK A01 T02140210  RH  098%=      5-min Rain = 0
KCH1 251408Z 13010KT 21/21 A3003 RMK A01 T02140210  RH  098%=      5-min Rain = 0
KCH1 251409Z 13011KT 21/21 A3003 RMK A01 T02140210  RH  097%=      5-min Rain = 0
KCH1 251410Z 13011KT 21/21 A3003 RMK A01 T02140210  RH  097%=      5-min Rain = 0
KCH1 251411Z 13011KT 21/21 A3003 RMK A01 T02140210  RH  097%=      5-min Rain = 0
KCH1 251412Z 13010KT 22/21 A3003 RMK A01 T02150210  RH  097%=      5-min Rain = 0
KCH1 251413Z 13012KT 22/21 A3003 RMK A01 T02150210  RH  097%=      5-min Rain = 0
KCH1 251414Z 13010KT 22/21 A3003 RMK A01 T02160211  RH  097%=      5-min Rain = 0
KCH1 251415Z 13011KT 22/21 A3003 RMK A01 T02160211  RH  097%=      5-min Rain = 0
KCH1 251416Z 13013KT 22/21 A3003 RMK A01 T02160211  RH  096%=      5-min Rain = 0
KCH1 251417Z 12011KT 22/21 A3003 RMK A01 T02170211  RH  096%=      5-min Rain = 0
KCH1 251418Z 13011G16KT 22/21 A3003 RMK A01 T02170211  RH  096%=      5-min Rain = 0
KCH1 251419Z 12013KT 22/21 A3003 RMK A01 T02170211  RH  096%=      5-min Rain = 0
KCH1 251420Z 13010KT 22/21 A3003 RMK A01 T02170210  RH  096%=      5-min Rain = 0
KCH1 251421Z 14009KT 22/21 A3003 RMK A01 T02180212  RH  096%=      5-min Rain = 0
KCH1 251422Z 13011KT 22/21 A3003 RMK A01 T02180211  RH  096%=      5-min Rain = 0
KCH1 251423Z 14011KT 22/21 A3003 RMK A01 T02180211  RH  096%=      5-min Rain = 0
KCH1 251424Z 13012KT 22/21 A3003 RMK A01 T02190212  RH  096%=      5-min Rain = 0
KCH1 251425Z 13011KT 22/21 A3003 RMK A01 T02190211  RH  095%=      5-min Rain = 0
KCH1 251426Z 13013KT 22/21 A3003 RMK A01 T02190211  RH  095%=      5-min Rain = 0
KCH1 251427Z 14011KT 22/21 A3003 RMK A01 T02200210  RH  094%=      5-min Rain = 0
KCH1 251428Z 14012KT 22/21 A3003 RMK A01 T02200211  RH  095%=      5-min Rain = 0
KCH1 251429Z 14012KT 22/21 A3003 RMK A01 T02200211  RH  095%=      5-min Rain = 0
KCH1 251430Z 14010KT 22/21 A3003 RMK A01 T02200211  RH  095%=      5-min Rain = 0
KCH1 251431Z 14009KT 22/21 A3003 RMK A01 T02210212  RH  095%=      5-min Rain = 0
KCH1 251432Z 13009KT 22/21 A3003 RMK A01 T02220214  RH  095%=      5-min Rain = 0
KCH1 251433Z 14012G17KT 22/21 A3003 RMK A01 T02220213  RH  095%=      5-min Rain = 0
KCH1 251434Z 14013KT 22/21 A3003 RMK A01 T02220212  RH  094%=      5-min Rain = 0
KCH1 251435Z 14012KT 22/21 A3003 RMK A01 T02220212  RH  094%=      5-min Rain = 0
KCH1 251436Z 14011KT 22/21 A3003 RMK A01 T02220212  RH  094%=      5-min Rain = 0
KCH1 251437Z 14012KT 22/21 A3003 RMK A01 T02230212  RH  094%=      5-min Rain = 0
KCH1 251438Z 13014KT 22/21 A3003 RMK A01 T02230212  RH  093%=      5-min Rain = 0
KCH1 251439Z 14012KT 22/21 A3003 RMK A01 T02230212  RH  093%=      5-min Rain = 0
KCH1 251440Z 15010G15KT 22/21 A3003 RMK A01 T02230213  RH  094%=      5-min Rain = 0
KCH1 251441Z 14012KT 22/21 A3003 RMK A01 T02240213  RH  094%=      5-min Rain = 0
KCH1 251442Z 13012KT 22/21 A3003 RMK A01 T02240214  RH  094%=      5-min Rain = 0
KCH1 251443Z 14010KT 22/21 A3003 RMK A01 T02240212  RH  093%=      5-min Rain = 0
KCH1 251444Z 14009KT 22/21 A3003 RMK A01 T02240214  RH  094%=      5-min Rain = 0
KCH1 251445Z 15010KT 23/22 A3003 RMK A01 T02250215  RH  094%=      5-min Rain = 0
KCH1 251446Z 15010KT 23/21 A3003 RMK A01 T02250214  RH  093%=      5-min Rain = 0
KCH1 251447Z 15012KT 23/21 A3003 RMK A01 T02250214  RH  093%=      5-min Rain = 0
KCH1 251448Z 15012KT 23/21 A3003 RMK A01 T02260214  RH  093%=      5-min Rain = 0
KCH1 251449Z 14010KT 23/21 A3003 RMK A01 T02260214  RH  093%=      5-min Rain = 0
KCH1 251450Z 14009G15KT 23/22 A3003 RMK A01 T02270215  RH  093%=      5-min Rain = 0
KCH1 251451Z 13010KT 23/22 A3003 RMK A01 T02280215  RH  093%=      5-min Rain = 0
KCH1 251452Z 15008KT 23/22 A3003 RMK A01 T02280216  RH  093%=      5-min Rain = 0
KCH1 251453Z 14007KT 23/22 A3003 RMK A01 T02300217  RH  092%=      5-min Rain = 0
KCH1 251454Z 14010KT 23/22 A3003 RMK A01 T02310218  RH  092%=      5-min Rain = 0
KCH1 251455Z 15010KT 23/22 A3003 RMK A01 T02320218  RH  092%=      5-min Rain = 0
KCH1 251456Z 14012KT 23/22 A3003 RMK A01 T02320215  RH  090%=      5-min Rain = 0
KCH1 251457Z 14008KT 23/22 A3003 RMK A01 T02320216  RH  091%=      5-min Rain = 0
KCH1 251458Z 14012KT 23/22 A3003 RMK A01 T02310216  RH  091%=      5-min Rain = 0
KCH1 251459Z 14012KT 23/21 A3003 RMK A01 T02320214  RH  090%=      5-min Rain = 0
KCH1 251500Z 14012KT 23/22 A3003 RMK A01 T02330216  RH  091%=      5-min Rain = 0
KCH1 251501Z 15011KT 23/22 A3003 RMK A01 T02330215  RH  090%=      5-min Rain = 0
KCH1 251502Z 16012KT 23/21 A3003 RMK A01 T02340214  RH  089%=      5-min Rain = 0
KCH1 251503Z 15011G16KT 23/22 A3003 RMK A01 T02330215  RH  089%=      5-min Rain = 0
KCH1 251504Z 14012KT 23/22 A3003 RMK A01 T02330215  RH  090%=      5-min Rain = 0
KCH1 251505Z 14012KT 23/22 A3003 RMK A01 T02330215  RH  090%=      5-min Rain = 0
KCH1 251506Z 15012KT 23/21 A3003 RMK A01 T02320214  RH  089%=      5-min Rain = 0
KCH1 251507Z 16012KT 23/21 A3003 RMK A01 T02310213  RH  090%=      5-min Rain = 0
KCH1 251508Z 17014KT 23/21 A3003 RMK A01 T02310213  RH  090%=      5-min Rain = 0
KCH1 251509Z 15011KT 23/21 A3003 RMK A01 T02300213  RH  090%=      5-min Rain = 0
KCH1 251510Z 15010KT 23/21 A3003 RMK A01 T02300214  RH  091%=      5-min Rain = 0
KCH1 251511Z 16010KT 23/21 A3003 RMK A01 T02300214  RH  090%=      5-min Rain = 0
KCH1 251512Z 14011KT 23/22 A3003 RMK A01 T02310215  RH  091%=      5-min Rain = 0
KCH1 251513Z 16011KT 23/22 A3003 RMK A01 T02310215  RH  091%=      5-min Rain = 0
KCH1 251514Z 16009KT 23/21 A3003 RMK A01 T02300214  RH  091%=      5-min Rain = 0
KCH1 251515Z 16008KT 23/22 A3003 RMK A01 T02310215  RH  091%=      5-min Rain = 0
KCH1 251516Z 16008G13KT 23/21 A3003 RMK A01 T02300214  RH  091%=      5-min Rain = 0
KCH1 251517Z 15011KT 23/21 A3003 RMK A01 T02310214  RH  090%=      5-min Rain = 0
KCH1 251518Z 15009KT 23/21 A3003 RMK A01 T02310214  RH  090%=      5-min Rain = 0
KCH1 251519Z 15011KT 23/21 A3002 RMK A01 T02310214  RH  090%=      5-min Rain = 0
KCH1 251520Z 15013KT 23/21 A3002 RMK A01 T02310212  RH  089%=      5-min Rain = 0
KCH1 251521Z 16012KT 23/21 A3002 RMK A01 T02310211  RH  088%=      5-min Rain = 0
KCH1 251522Z 15012KT 23/21 A3002 RMK A01 T02310212  RH  089%=      5-min Rain = 0
KCH1 251523Z 15012KT 23/21 A3002 RMK A01 T02310212  RH  089%=      5-min Rain = 0
KCH1 251524Z 16011KT 23/21 A3002 RMK A01 T02320213  RH  089%=      5-min Rain = 0
KCH1 251525Z 14012G17KT 23/21 A3002 RMK A01 T02310213  RH  089%=      5-min Rain = 0
KCH1 251526Z 15011KT 23/21 A3002 RMK A01 T02310212  RH  089%=      5-min Rain = 0
KCH1 251527Z 15012KT 23/21 A3002 RMK A01 T02320213  RH  089%=      5-min Rain = 0
KCH1 251528Z 16014KT 23/21 A3002 RMK A01 T02320213  RH  089%=      5-min Rain = 0
KCH1 251529Z 15015KT 23/21 A3002 RMK A01 T02320212  RH  088%=      5-min Rain = 0
KCH1 251530Z 15013G18KT 23/21 A3002 RMK A01 T02320212  RH  088%=      5-min Rain = 0
KCH1 251531Z 15012KT 23/21 A3002 RMK A01 T02320212  RH  089%=      5-min Rain = 0
KCH1 251532Z 16011G16KT 23/21 A3002 RMK A01 T02320212  RH  089%=      5-min Rain = 0
KCH1 251533Z 15011G16KT 23/21 A3002 RMK A01 T02330214  RH  089%=      5-min Rain = 0
KCH1 251534Z 16014KT 23/21 A3002 RMK A01 T02330212  RH  088%=      5-min Rain = 0
KCH1 251535Z 15013KT 23/21 A3002 RMK A01 T02330212  RH  088%=      5-min Rain = 0
KCH1 251536Z 15011KT 23/21 A3002 RMK A01 T02330212  RH  088%=      5-min Rain = 0
KCH1 251537Z 15012KT 23/21 A3002 RMK A01 T02330212  RH  088%=      5-min Rain = 0
KCH1 251538Z 15011KT 23/21 A3002 RMK A01 T02330213  RH  088%=      5-min Rain = 0
KCH1 251539Z 16010KT 23/21 A3002 RMK A01 T02340213  RH  088%=      5-min Rain = 0
KCH1 251540Z 15010KT 23/21 A3002 RMK A01 T02340213  RH  088%=      5-min Rain = 0
KCH1 251541Z 15014G19KT 24/21 A3002 RMK A01 T02350213  RH  088%=      5-min Rain = 0
KCH1 251542Z 16013G18KT 24/21 A3002 RMK A01 T02350211  RH  087%=      5-min Rain = 0
KCH1 251543Z 17011KT 24/21 A3002 RMK A01 T02350212  RH  087%=      5-min Rain = 0
KCH1 251544Z 16011KT 24/21 A3002 RMK A01 T02350212  RH  087%=      5-min Rain = 0
KCH1 251545Z 14013KT 24/21 A3002 RMK A01 T02360214  RH  087%=      5-min Rain = 0
KCH1 251546Z 15012KT 24/21 A3002 RMK A01 T02360212  RH  087%=      5-min Rain = 0
KCH1 251547Z 14013KT 24/21 A3002 RMK A01 T02360213  RH  087%=      5-min Rain = 0
KCH1 251548Z 15013KT 24/21 A3002 RMK A01 T02360212  RH  086%=      5-min Rain = 0
KCH1 251549Z 15012G17KT 24/21 A3002 RMK A01 T02350211  RH  086%=      5-min Rain = 0
KCH1 251550Z 15011KT 24/21 A3003 RMK A01 T02350212  RH  087%=      5-min Rain = 0
KCH1 251551Z 16012KT 24/21 A3002 RMK A01 T02350212  RH  087%=      5-min Rain = 0
KCH1 251552Z 16011G16KT 24/21 A3003 RMK A01 T02350211  RH  087%=      5-min Rain = 0
KCH1 251553Z 15013KT 24/21 A3003 RMK A01 T02350212  RH  087%=      5-min Rain = 0
KCH1 251554Z 16012KT 24/21 A3002 RMK A01 T02350211  RH  087%=      5-min Rain = 0
KCH1 251555Z 15012KT 24/21 A3003 RMK A01 T02350212  RH  087%=      5-min Rain = 0
KCH1 251556Z 15011KT 24/21 A3003 RMK A01 T02350212  RH  087%=      5-min Rain = 0
KCH1 251557Z 16010KT 24/21 A3002 RMK A01 T02350212  RH  087%=      5-min Rain = 0
KCH1 251558Z 16010KT 24/21 A3003 RMK A01 T02350213  RH  087%=      5-min Rain = 0
KCH1 251559Z 16010KT 24/21 A3003 RMK A01 T02350213  RH  087%=      5-min Rain = 0
KCH1 251600Z 15009KT 24/21 A3003 RMK A01 T02350213  RH  087%=      5-min Rain = 0
KCH1 251601Z 16007G13KT 24/21 A3003 RMK A01 T02350213  RH  087%=      5-min Rain = 0
KCH1 251602Z 15010KT 24/21 A3003 RMK A01 T02350213  RH  087%=      5-min Rain = 0
KCH1 251603Z 15012KT 24/21 A3003 RMK A01 T02350213  RH  087%=      5-min Rain = 0
KCH1 251604Z 15013KT 24/21 A3003 RMK A01 T02350212  RH  087%=      5-min Rain = 0
KCH1 251605Z 15013KT 24/21 A3002 RMK A01 T02350212  RH  086%=      5-min Rain = 0
KCH1 251606Z 15014KT 24/21 A3002 RMK A01 T02360212  RH  086%=      5-min Rain = 0
KCH1 251607Z 15009G14KT 24/21 A3003 RMK A01 T02360212  RH  087%=      5-min Rain = 0
KCH1 251608Z 15012KT 24/21 A3003 RMK A01 T02350213  RH  087%=      5-min Rain = 0
KCH1 251609Z 15012KT 24/21 A3002 RMK A01 T02350212  RH  087%=      5-min Rain = 0
KCH1 251610Z 15010KT 24/21 A3002 RMK A01 T02350212  RH  087%=      5-min Rain = 0
KCH1 251611Z 16009KT 24/21 A3002 RMK A01 T02350213  RH  087%=      5-min Rain = 0
KCH1 251612Z 15011KT 24/21 A3002 RMK A01 T02360212  RH  087%=      5-min Rain = 0
KCH1 251613Z 15010KT 24/21 A3002 RMK A01 T02360213  RH  087%=      5-min Rain = 0
KCH1 251614Z 15008KT 24/21 A3002 RMK A01 T02360214  RH  087%=      5-min Rain = 0
KCH1 251615Z 15010KT 24/21 A3002 RMK A01 T02370214  RH  087%=      5-min Rain = 0
KCH1 251616Z 15012KT 24/21 A3002 RMK A01 T02370213  RH  086%=      5-min Rain = 0
KCH1 251617Z 15011KT 24/21 A3002 RMK A01 T02370213  RH  086%=      5-min Rain = 0
KCH1 251618Z 15013KT 24/21 A3002 RMK A01 T02380213  RH  086%=      5-min Rain = 0
KCH1 251619Z 15012KT 24/21 A3002 RMK A01 T02370213  RH  086%=      5-min Rain = 0
KCH1 251620Z 15012KT 24/21 A3002 RMK A01 T02380213  RH  086%=      5-min Rain = 0
KCH1 251621Z 16012KT 24/21 A3002 RMK A01 T02390214  RH  086%=      5-min Rain = 0
KCH1 251622Z 16010KT 24/21 A3002 RMK A01 T02390214  RH  086%=      5-min Rain = 0
KCH1 251623Z 15013KT 24/21 A3002 RMK A01 T02400214  RH  086%=      5-min Rain = 0
KCH1 251624Z 15013KT 24/21 A3002 RMK A01 T02400214  RH  085%=      5-min Rain = 0
KCH1 251625Z 15009KT 24/22 A3002 RMK A01 T02410215  RH  086%=      5-min Rain = 0
KCH1 251626Z 15009KT 24/22 A3002 RMK A01 T02420216  RH  085%=      5-min Rain = 0
KCH1 251627Z 16010KT 24/22 A3002 RMK A01 T02440218  RH  085%=      5-min Rain = 0
KCH1 251628Z 16012KT 25/22 A3002 RMK A01 T02450216  RH  084%=      5-min Rain = 0
KCH1 251629Z 15010G15KT 25/22 A3002 RMK A01 T02450216  RH  084%=      5-min Rain = 0
KCH1 251630Z 15013KT 25/22 A3002 RMK A01 T02460217  RH  084%=      5-min Rain = 0
KCH1 251631Z 16011KT 25/22 A3002 RMK A01 T02470217  RH  083%=      5-min Rain = 0
KCH1 251632Z 15011KT 25/22 A3002 RMK A01 T02470217  RH  083%=      5-min Rain = 0
KCH1 251633Z 17010KT 25/22 A3002 RMK A01 T02470218  RH  084%=      5-min Rain = 0
KCH1 251634Z 18012G17KT 25/22 A3002 RMK A01 T02480217  RH  083%=      5-min Rain = 0
KCH1 251635Z 16012KT 25/22 A3002 RMK A01 T02480216  RH  082%=      5-min Rain = 0
KCH1 251636Z 17011KT 25/22 A3002 RMK A01 T02480215  RH  082%=      5-min Rain = 0
KCH1 251637Z 17010KT 25/22 A3002 RMK A01 T02470217  RH  083%=      5-min Rain = 0
KCH1 251638Z 17013KT 25/22 A3002 RMK A01 T02470216  RH  083%=      5-min Rain = 0
KCH1 251639Z 16009KT 25/22 A3002 RMK A01 T02480218  RH  083%=      5-min Rain = 0
KCH1 251640Z 15012KT 25/22 A3002 RMK A01 T02510220  RH  083%=      5-min Rain = 0
KCH1 251641Z 16012KT 25/22 A3002 RMK A01 T02520218  RH  082%=      5-min Rain = 0
KCH1 251642Z 16012KT 25/22 A3002 RMK A01 T02510218  RH  082%=      5-min Rain = 0
KCH1 251643Z 17009KT 25/22 A3002 RMK A01 T02510219  RH  083%=      5-min Rain = 0
KCH1 251644Z 15009KT 25/22 A3002 RMK A01 T02510220  RH  083%=      5-min Rain = 0
KCH1 251645Z 16010KT 25/22 A3002 RMK A01 T02510219  RH  083%=      5-min Rain = 0
KCH1 251646Z 16010KT 25/22 A3002 RMK A01 T02500219  RH  083%=      5-min Rain = 0
KCH1 251647Z 15008KT 25/22 A3002 RMK A01 T02490218  RH  083%=      5-min Rain = 0
KCH1 251648Z 16011KT 25/22 A3002 RMK A01 T02490220  RH  084%=      5-min Rain = 0
KCH1 251649Z 16011KT 25/22 A3002 RMK A01 T02480217  RH  083%=      5-min Rain = 0
KCH1 251650Z 16011G18KT 25/22 A3002 RMK A01 T02480218  RH  083%=      5-min Rain = 0
KCH1 251651Z 16009KT 25/22 A3002 RMK A01 T02470217  RH  083%=      5-min Rain = 0
KCH1 251652Z 16009KT 25/22 A3002 RMK A01 T02480218  RH  084%=      5-min Rain = 0
KCH1 251653Z 15012KT 25/22 A3002 RMK A01 T02480218  RH  084%=      5-min Rain = 0
KCH1 251654Z 15011KT 25/22 A3002 RMK A01 T02470217  RH  083%=      5-min Rain = 0
KCH1 251655Z 16010KT 25/22 A3002 RMK A01 T02470217  RH  083%=      5-min Rain = 0
KCH1 251656Z 16011KT 25/22 A3002 RMK A01 T02470217  RH  084%=      5-min Rain = 0
KCH1 251657Z 15011KT 25/22 A3002 RMK A01 T02470216  RH  083%=      5-min Rain = 0
KCH1 251658Z 15009KT 25/22 A3002 RMK A01 T02470217  RH  083%=      5-min Rain = 0
KCH1 251659Z 16009KT 25/22 A3002 RMK A01 T02490219  RH  083%=      5-min Rain = 0
KCH1 251700Z 15012KT 25/22 A3002 RMK A01 T02510220  RH  083%=      5-min Rain = 0
KCH1 251701Z 15010KT 25/22 A3002 RMK A01 T02530219  RH  081%=      5-min Rain = 0
KCH1 251702Z 15011KT 26/22 A3002 RMK A01 T02550220  RH  081%=      5-min Rain = 0
KCH1 251703Z 16013KT 26/22 A3002 RMK A01 T02550218  RH  080%=      5-min Rain = 0
KCH1 251704Z 14012KT 26/22 A3002 RMK A01 T02550218  RH  080%=      5-min Rain = 0
KCH1 251705Z 15013KT 26/22 A3002 RMK A01 T02550219  RH  080%=      5-min Rain = 0
KCH1 251706Z 16013KT 26/22 A3002 RMK A01 T02550217  RH  079%=      5-min Rain = 0
KCH1 251707Z 15010KT 26/22 A3002 RMK A01 T02550219  RH  080%=      5-min Rain = 0
KCH1 251708Z 16013KT 26/22 A3002 RMK A01 T02550218  RH  080%=      5-min Rain = 0
KCH1 251709Z 16013KT 26/22 A3002 RMK A01 T02560217  RH  079%=      5-min Rain = 0
KCH1 251710Z 16014KT 26/22 A3001 RMK A01 T02560217  RH  079%=      5-min Rain = 0
KCH1 251711Z 16008KT 26/22 A3002 RMK A01 T02550218  RH  080%=      5-min Rain = 0
KCH1 251712Z 15011KT 26/22 A3002 RMK A01 T02560221  RH  081%=      5-min Rain = 0
KCH1 251713Z 14013KT 26/22 A3002 RMK A01 T02570219  RH  080%=      5-min Rain = 0
KCH1 251714Z 15013KT 26/22 A3002 RMK A01 T02570219  RH  079%=      5-min Rain = 0
KCH1 251715Z 16012KT 26/22 A3002 RMK A01 T02570218  RH  079%=      5-min Rain = 0
KCH1 251716Z 16013KT 26/22 A3002 RMK A01 T02570219  RH  079%=      5-min Rain = 0
KCH1 251717Z 17013KT 26/22 A3001 RMK A01 T02570217  RH  079%=      5-min Rain = 0
KCH1 251718Z 15012KT 26/22 A3001 RMK A01 T02570218  RH  079%=      5-min Rain = 0
KCH1 251719Z 16015KT 26/22 A3001 RMK A01 T02570217  RH  078%=      5-min Rain = 0
KCH1 251720Z 17012KT 26/22 A3001 RMK A01 T02580218  RH  079%=      5-min Rain = 0
KCH1 251721Z 16011G18KT 26/22 A3001 RMK A01 T02580219  RH  079%=      5-min Rain = 0
KCH1 251722Z 16016KT 26/22 A3001 RMK A01 T02590217  RH  078%=      5-min Rain = 0
KCH1 251723Z 15012KT 26/22 A3001 RMK A01 T02590217  RH  078%=      5-min Rain = 0
KCH1 251724Z 16015KT 26/22 A3001 RMK A01 T02590217  RH  078%=      5-min Rain = 0
KCH1 251725Z 16013KT 26/22 A3001 RMK A01 T02590216  RH  077%=      5-min Rain = 0
KCH1 251726Z 16014KT 26/22 A3001 RMK A01 T02580216  RH  078%=      5-min Rain = 0
KCH1 251727Z 16016G21KT 26/22 A3001 RMK A01 T02590215  RH  077%=      5-min Rain = 0
KCH1 251728Z 15013KT 26/22 A3001 RMK A01 T02590215  RH  077%=      5-min Rain = 0
KCH1 251729Z 15011KT 26/22 A3001 RMK A01 T02580216  RH  077%=      5-min Rain = 0
KCH1 251730Z 16009KT 26/22 A3001 RMK A01 T02580216  RH  077%=      5-min Rain = 0
KCH1 251731Z 16009KT 26/22 A3001 RMK A01 T02580216  RH  078%=      5-min Rain = 0
KCH1 251732Z 17008KT 26/22 A3001 RMK A01 T02590218  RH  078%=      5-min Rain = 0
KCH1 251733Z 17012G17KT 26/22 A3001 RMK A01 T02590217  RH  078%=      5-min Rain = 0
KCH1 251734Z 16008KT 26/22 A3001 RMK A01 T02590218  RH  078%=      5-min Rain = 0
KCH1 251735Z 16011KT 26/22 A3001 RMK A01 T02600216  RH  077%=      5-min Rain = 0
KCH1 251736Z 17010G15KT 26/22 A3001 RMK A01 T02620216  RH  076%=      5-min Rain = 0
KCH1 251737Z 17008G14KT 26/22 A3001 RMK A01 T02630216  RH  076%=      5-min Rain = 0
KCH1 251738Z 19015G21KT 26/21 A3001 RMK A01 T02640214  RH  074%=      5-min Rain = 0
KCH1 251739Z 18015G20KT 26/21 A3001 RMK A01 T02630214  RH  074%=      5-min Rain = 0
KCH1 251740Z 16012G18KT 26/22 A3001 RMK A01 T02630215  RH  075%=      5-min Rain = 0
KCH1 251741Z 15013G19KT 26/22 A3001 RMK A01 T02630216  RH  075%=      5-min Rain = 0
KCH1 251742Z 14012KT 26/22 A3001 RMK A01 T02630218  RH  077%=      5-min Rain = 0
KCH1 251743Z 15011KT 26/22 A3001 RMK A01 T02620218  RH  076%=      5-min Rain = 0
KCH1 251744Z 15012KT 26/22 A3001 RMK A01 T02620218  RH  077%=      5-min Rain = 0
KCH1 251745Z 15011KT 26/22 A3001 RMK A01 T02610217  RH  077%=      5-min Rain = 0
KCH1 251746Z 15014KT 26/22 A3001 RMK A01 T02600218  RH  078%=      5-min Rain = 0
KCH1 251747Z 14012KT 26/22 A3001 RMK A01 T02590218  RH  078%=      5-min Rain = 0
KCH1 251748Z 15010KT 26/22 A3001 RMK A01 T02600218  RH  078%=      5-min Rain = 0
KCH1 251749Z 16010G15KT 26/22 A3001 RMK A01 T02590219  RH  078%=      5-min Rain = 0
KCH1 251750Z 16011KT 26/22 A3001 RMK A01 T02600218  RH  078%=      5-min Rain = 0
KCH1 251751Z 17012KT 26/22 A3001 RMK A01 T02610217  RH  077%=      5-min Rain = 0
KCH1 251752Z 15012KT 26/22 A3001 RMK A01 T02620217  RH  076%=      5-min Rain = 0
KCH1 251753Z 16015G20KT 26/22 A3001 RMK A01 T02630216  RH  075%=      5-min Rain = 0
KCH1 251754Z 16014KT 26/22 A3001 RMK A01 T02630216  RH  075%=      5-min Rain = 0
KCH1 251755Z 15017KT 26/22 A3001 RMK A01 T02630215  RH  075%=      5-min Rain = 0
KCH1 251756Z 16011KT 26/22 A3001 RMK A01 T02630215  RH  075%=      5-min Rain = 0
KCH1 251757Z 17014G19KT 26/22 A3001 RMK A01 T02630217  RH  076%=      5-min Rain = 0
KCH1 251758Z 17013KT 26/22 A3001 RMK A01 T02630215  RH  075%=      5-min Rain = 0
KCH1 251759Z 17013KT 26/22 A3001 RMK A01 T02630216  RH  075%=      5-min Rain = 0
KCH1 251800Z 16011KT 26/22 A3001 RMK A01 T02640218  RH  076%=      5-min Rain = 0
KCH1 251801Z 15011KT 26/22 A3001 RMK A01 T02640218  RH  076%=      5-min Rain = 0
KCH1 251802Z 15012G17KT 26/22 A3001 RMK A01 T02640218  RH  076%=      5-min Rain = 0
KCH1 251803Z 15012KT 26/22 A3001 RMK A01 T02630217  RH  076%=      5-min Rain = 0
KCH1 251804Z 15012KT 26/22 A3001 RMK A01 T02620218  RH  077%=      5-min Rain = 0
KCH1 251805Z 15009KT 26/22 A3001 RMK A01 T02620218  RH  077%=      5-min Rain = 0
KCH1 251806Z 15008KT 26/22 A3001 RMK A01 T02620219  RH  077%=      5-min Rain = 0
KCH1 251807Z 16010G15KT 26/22 A30 RMK A01 T02620220  RH  077%=      5-min Rain = 0
KCH1 251808Z 16012KT 26/22 A30 RMK A01 T02630219  RH  077%=      5-min Rain = 0
KCH1 251809Z 15011KT 26/22 A30 RMK A01 T02640219  RH  076%=      5-min Rain = 0
KCH1 251810Z 14008KT 26/22 A30 RMK A01 T02640221  RH  077%=      5-min Rain = 0
KCH1 251811Z 14013G18KT 26/22 A30 RMK A01 T02640221  RH  077%=      5-min Rain = 0
KCH1 251812Z 14017KT 26/22 A30 RMK A01 T02630217  RH  075%=      5-min Rain = 0
KCH1 251813Z 15015G20KT 26/22 A30 RMK A01 T02620217  RH  076%=      5-min Rain = 0
KCH1 251814Z 14014G22KT 26/22 A30 RMK A01 T02610218  RH  077%=      5-min Rain = 0
KCH1 251815Z 14017KT 26/22 A30 RMK A01 T02600216  RH  077%=      5-min Rain = 0
KCH1 251816Z 14015KT 26/22 A30 RMK A01 T02590217  RH  077%=      5-min Rain = 0
KCH1 251817Z 14016KT 26/22 A30 RMK A01 T02590216  RH  077%=      5-min Rain = 0
KCH1 251818Z 14014KT 26/22 A30 RMK A01 T02590216  RH  077%=      5-min Rain = 0
KCH1 251819Z 14014KT 26/22 A30 RMK A01 T02580216  RH  078%=      5-min Rain = 0
KCH1 251820Z 14012KT 26/22 A30 RMK A01 T02580217  RH  078%=      5-min Rain = 0
KCH1 251821Z 15011KT 26/22 A30 RMK A01 T02580217  RH  078%=      5-min Rain = 0
KCH1 251822Z 15012KT 26/22 A30 RMK A01 T02590218  RH  078%=      5-min Rain = 0
KCH1 251823Z 15012KT 26/22 A30 RMK A01 T02590219  RH  078%=      5-min Rain = 0
KCH1 251824Z 14011KT 26/22 A30 RMK A01 T02610219  RH  078%=      5-min Rain = 0
KCH1 251825Z 15015KT 26/22 A30 RMK A01 T02620218  RH  077%=      5-min Rain = 0
KCH1 251826Z 15011KT 26/22 A30 RMK A01 T02640221  RH  077%=      5-min Rain = 0
KCH1 251827Z 15013G18KT 27/22 A30 RMK A01 T02660219  RH  075%=      5-min Rain = 0
KCH1 251828Z 14012G18KT 27/22 A30 RMK A01 T02670221  RH  076%=      5-min Rain = 0
KCH1 251829Z 14012KT 27/22 A30 RMK A01 T02690220  RH  075%=      5-min Rain = 0
KCH1 251830Z 14016G21KT 27/22 A2999 RMK A01 T02690219  RH  074%=      5-min Rain = 0
KCH1 251831Z 15012KT 27/22 A2999 RMK A01 T02690219  RH  074%=      5-min Rain = 0
KCH1 251832Z 14012KT 27/22 A2999 RMK A01 T02690221  RH  075%=      5-min Rain = 0
KCH1 251833Z 15013KT 27/22 A2999 RMK A01 T02690221  RH  075%=      5-min Rain = 0
KCH1 251834Z 15012KT 27/22 A2999 RMK A01 T02690220  RH  075%=      5-min Rain = 0
KCH1 251835Z 15010KT 27/22 A2999 RMK A01 T02700222  RH  075%=      5-min Rain = 0
KCH1 251836Z 14012KT 27/22 A2999 RMK A01 T02700222  RH  075%=      5-min Rain = 0
KCH1 251837Z 15013KT 27/22 A2999 RMK A01 T02710221  RH  074%=      5-min Rain = 0
KCH1 251838Z 16012KT 27/22 A2999 RMK A01 T02710220  RH  074%=      5-min Rain = 0
KCH1 251839Z 15017KT 27/22 A2999 RMK A01 T02710218  RH  073%=      5-min Rain = 0
KCH1 251840Z 16014KT 27/22 A2999 RMK A01 T02700217  RH  072%=      5-min Rain = 0
KCH1 251841Z 16013KT 27/22 A2999 RMK A01 T02700217  RH  073%=      5-min Rain = 0
KCH1 251842Z 15013KT 27/22 A2999 RMK A01 T02690219  RH  074%=      5-min Rain = 0
KCH1 251843Z 15016KT 27/22 A2999 RMK A01 T02700219  RH  074%=      5-min Rain = 0
KCH1 251844Z 16013KT 27/22 A2999 RMK A01 T02710220  RH  074%=      5-min Rain = 0
KCH1 251845Z 16012KT 27/22 A2999 RMK A01 T02730220  RH  073%=      5-min Rain = 0
KCH1 251846Z 16013KT 27/22 A2999 RMK A01 T02740221  RH  073%=      5-min Rain = 0
KCH1 251847Z 15012G18KT 27/22 A2999 RMK A01 T02740221  RH  073%=      5-min Rain = 0
KCH1 251848Z 14012KT 28/23 A2998 RMK A01 T02750225  RH  074%=      5-min Rain = 0
KCH1 251849Z 15014G19KT 28/22 A2998 RMK A01 T02780222  RH  072%=      5-min Rain = 0
KCH1 251850Z 14011KT 28/22 A2998 RMK A01 T02770224  RH  072%=      5-min Rain = 0
KCH1 251851Z 16014KT 28/22 A2998 RMK A01 T02760222  RH  072%=      5-min Rain = 0
KCH1 251852Z 15017G22KT 27/22 A2998 RMK A01 T02730219  RH  072%=      5-min Rain = 0
KCH1 251853Z 15018G23KT 27/22 A2998 RMK A01 T02710216  RH  072%=      5-min Rain = 0
KCH1 251854Z 15016KT 27/22 A2998 RMK A01 T02680216  RH  073%=      5-min Rain = 0
KCH1 251855Z 15017KT 27/22 A2998 RMK A01 T02680216  RH  073%=      5-min Rain = 0
KCH1 251856Z 15015G21KT 27/22 A2998 RMK A01 T02690219  RH  074%=      5-min Rain = 0
KCH1 251857Z 14015KT 27/22 A2998 RMK A01 T02700220  RH  074%=      5-min Rain = 0
KCH1 251858Z 14015KT 27/22 A2998 RMK A01 T02700220  RH  074%=      5-min Rain = 0
KCH1 251859Z 13014KT 27/22 A2998 RMK A01 T02700219  RH  074%=      5-min Rain = 0
KCH1 251900Z 13015KT 27/22 A2998 RMK A01 T02680219  RH  074%=      5-min Rain = 0
KCH1 251901Z 13016KT 27/22 A2998 RMK A01 T02670218  RH  074%=      5-min Rain = 0
KCH1 251902Z 13014KT 27/22 A2998 RMK A01 T02660218  RH  075%=      5-min Rain = 0
KCH1 251903Z 14013KT 27/22 A2998 RMK A01 T02650218  RH  075%=      5-min Rain = 0
KCH1 251904Z 13011KT 26/22 A2998 RMK A01 T02640219  RH  076%=      5-min Rain = 0
KCH1 251905Z 14011KT 26/22 A2998 RMK A01 T02640219  RH  076%=      5-min Rain = 0
KCH1 251906Z 14010KT 27/22 A2998 RMK A01 T02650219  RH  076%=      5-min Rain = 0
KCH1 251907Z 14014KT 27/22 A2998 RMK A01 T02650219  RH  076%=      5-min Rain = 0
KCH1 251908Z 15016KT 27/22 A2998 RMK A01 T02660219  RH  075%=      5-min Rain = 0
KCH1 251909Z 15015KT 27/22 A2998 RMK A01 T02680219  RH  074%=      5-min Rain = 0
KCH1 251910Z 16016KT 27/22 A2998 RMK A01 T02680218  RH  074%=      5-min Rain = 0
KCH1 251911Z 15014G21KT 27/22 A2998 RMK A01 T02680218  RH  074%=      5-min Rain = 0
KCH1 251912Z 16014G19KT 27/22 A2998 RMK A01 T02680218  RH  074%=      5-min Rain = 0
KCH1 251913Z 16013G18KT 27/22 A2998 RMK A01 T02690217  RH  073%=      5-min Rain = 0
KCH1 251914Z 15010G17KT 27/22 A2998 RMK A01 T02690218  RH  074%=      5-min Rain = 0
KCH1 251915Z 16015KT 27/22 A2997 RMK A01 T02690216  RH  073%=      5-min Rain = 0
KCH1 251916Z 17013KT 27/22 A2997 RMK A01 T02700217  RH  073%=      5-min Rain = 0
KCH1 251917Z 16011KT 27/22 A2997 RMK A01 T02710219  RH  074%=      5-min Rain = 0
KCH1 251918Z 15009KT 27/22 A2997 RMK A01 T02720221  RH  074%=      5-min Rain = 0
KCH1 251919Z 15012KT 27/22 A2997 RMK A01 T02740222  RH  073%=      5-min Rain = 0
KCH1 251920Z 14014KT 28/22 A2997 RMK A01 T02760221  RH  072%=      5-min Rain = 0
KCH1 251921Z 15011KT 28/22 A2997 RMK A01 T02760222  RH  072%=      5-min Rain = 0
KCH1 251922Z 15013KT 28/22 A2997 RMK A01 T02770222  RH  072%=      5-min Rain = 0
KCH1 251923Z 15011KT 28/22 A2997 RMK A01 T02770222  RH  072%=      5-min Rain = 0
KCH1 251924Z 14012KT 28/22 A2997 RMK A01 T02770221  RH  071%=      5-min Rain = 0
KCH1 251925Z 16009KT 28/22 A2997 RMK A01 T02780221  RH  071%=      5-min Rain = 0
KCH1 251926Z 17012KT 28/22 A2997 RMK A01 T02780222  RH  071%=      5-min Rain = 0
KCH1 251927Z 18015KT 28/22 A2997 RMK A01 T02780218  RH  070%=      5-min Rain = 0
KCH1 251928Z 17013KT 28/22 A2997 RMK A01 T02790216  RH  069%=      5-min Rain = 0
KCH1 251929Z 16012KT 28/22 A2997 RMK A01 T02780217  RH  069%=      5-min Rain = 0
KCH1 251930Z 17011KT 28/22 A2997 RMK A01 T02780216  RH  069%=      5-min Rain = 0
KCH1 251931Z 16010KT 28/22 A2997 RMK A01 T02790217  RH  069%=      5-min Rain = 0
KCH1 251932Z 16014KT 28/22 A2997 RMK A01 T02800219  RH  069%=      5-min Rain = 0
KCH1 251933Z 15013KT 28/22 A2997 RMK A01 T02820217  RH  068%=      5-min Rain = 0
KCH1 251934Z 15012KT 28/22 A2996 RMK A01 T02830219  RH  068%=      5-min Rain = 0
KCH1 251935Z 16012G17KT 28/22 A2996 RMK A01 T02830220  RH  068%=      5-min Rain = 0
KCH1 251936Z 17015KT 28/22 A2996 RMK A01 T02840216  RH  067%=      5-min Rain = 0
KCH1 251937Z 17014KT 28/22 A2996 RMK A01 T02840217  RH  067%=      5-min Rain = 0
KCH1 251938Z 17014KT 28/22 A2996 RMK A01 T02840217  RH  067%=      5-min Rain = 0
KCH1 251939Z 16014KT 28/22 A2996 RMK A01 T02840216  RH  067%=      5-min Rain = 0
KCH1 251940Z 17012KT 28/22 A2996 RMK A01 T02840218  RH  068%=      5-min Rain = 0
KCH1 251941Z 16014KT 29/22 A2996 RMK A01 T02850218  RH  067%=      5-min Rain = 0
KCH1 251942Z 16012KT 29/22 A2996 RMK A01 T02850220  RH  068%=      5-min Rain = 0
KCH1 251943Z 16011G16KT 29/22 A2996 RMK A01 T02860220  RH  068%=      5-min Rain = 0
KCH1 251944Z 16011KT 29/22 A2996 RMK A01 T02860221  RH  068%=      5-min Rain = 0
KCH1 251945Z 15012G17KT 29/22 A2996 RMK A01 T02860221  RH  068%=      5-min Rain = 0
KCH1 251946Z 16013KT 29/22 A2996 RMK A01 T02850219  RH  067%=      5-min Rain = 0
KCH1 251947Z 16010KT 28/22 A2996 RMK A01 T02840221  RH  069%=      5-min Rain = 0
KCH1 251948Z 17011KT 28/22 A2996 RMK A01 T02840222  RH  069%=      5-min Rain = 0
KCH1 251949Z 16014KT 28/22 A2996 RMK A01 T02840219  RH  068%=      5-min Rain = 0
KCH1 251950Z 16014KT 28/22 A2995 RMK A01 T02830216  RH  067%=      5-min Rain = 0
KCH1 251951Z 16011G16KT 29/22 A2995 RMK A01 T02850219  RH  067%=      5-min Rain = 0
KCH1 251952Z 16011KT 29/22 A2995 RMK A01 T02890222  RH  067%=      5-min Rain = 0
KCH1 251953Z 15012KT 29/22 A2995 RMK A01 T02930224  RH  066%=      5-min Rain = 0
KCH1 251954Z 16011KT 30/22 A2995 RMK A01 T02960222  RH  064%=      5-min Rain = 0
KCH1 251955Z 15012KT 30/22 A2995 RMK A01 T02970223  RH  064%=      5-min Rain = 0
KCH1 251956Z 17008KT 30/22 A2995 RMK A01 T02960221  RH  064%=      5-min Rain = 0
KCH1 251957Z 17010KT 30/22 A2995 RMK A01 T02950224  RH  066%=      5-min Rain = 0
KCH1 251958Z 18013KT 29/22 A2995 RMK A01 T02930217  RH  064%=      5-min Rain = 0
KCH1 251959Z 18012KT 29/21 A2995 RMK A01 T02910214  RH  063%=      5-min Rain = 0
KCH1 252000Z 18011G17KT 29/22 A2995 RMK A01 T02900215  RH  064%=      5-min Rain = 0
KCH1 252001Z 17012KT 29/22 A2995 RMK A01 T02910216  RH  064%=      5-min Rain = 0
KCH1 252002Z 17013KT 29/22 A2995 RMK A01 T02930217  RH  064%=      5-min Rain = 0
KCH1 252003Z 17012KT 29/21 A2994 RMK A01 T02940214  RH  062%=      5-min Rain = 0
KCH1 252004Z 17011KT 29/22 A2995 RMK A01 T02940217  RH  063%=      5-min Rain = 0
KCH1 252005Z 17010G15KT 29/22 A2995 RMK A01 T02930216  RH  063%=      5-min Rain = 0
KCH1 252006Z 17010KT 29/22 A2995 RMK A01 T02920215  RH  063%=      5-min Rain = 0
KCH1 252007Z 17009KT 29/22 A2995 RMK A01 T02920218  RH  064%=      5-min Rain = 0
KCH1 252008Z 18009G16KT 29/22 A2995 RMK A01 T02930216  RH  063%=      5-min Rain = 0
KCH1 252009Z 17011G16KT 29/22 A2995 RMK A01 T02930217  RH  064%=      5-min Rain = 0
KCH1 252010Z 16015KT 29/21 A2995 RMK A01 T02940212  RH  061%=      5-min Rain = 0
KCH1 252011Z 17010KT 29/22 A2995 RMK A01 T02940216  RH  063%=      5-min Rain = 0
KCH1 252012Z 18011KT 30/22 A2994 RMK A01 T02950216  RH  063%=      5-min Rain = 0
KCH1 252013Z 18013KT 30/22 A2994 RMK A01 T02950216  RH  063%=      5-min Rain = 0
KCH1 252014Z 16012KT 30/21 A2994 RMK A01 T02960214  RH  061%=      5-min Rain = 0
KCH1 252015Z 15012G17KT 30/22 A2994 RMK A01 T02960217  RH  063%=      5-min Rain = 0
KCH1 252016Z 16011G17KT 30/21 A2994 RMK A01 T02960214  RH  061%=      5-min Rain = 0
KCH1 252017Z 15012KT 30/22 A2994 RMK A01 T02960215  RH  062%=      5-min Rain = 0
KCH1 252018Z 16014G21KT 30/22 A2994 RMK A01 T02960215  RH  062%=      5-min Rain = 0
KCH1 252019Z 16013KT 30/21 A2994 RMK A01 T02960213  RH  061%=      5-min Rain = 0
KCH1 252020Z 16008KT 30/22 A2994 RMK A01 T02950215  RH  062%=      5-min Rain = 0
KCH1 252021Z 15010G15KT 29/22 A2994 RMK A01 T02940217  RH  063%=      5-min Rain = 0
KCH1 252022Z 16010KT 29/22 A2994 RMK A01 T02940217  RH  063%=      5-min Rain = 0
KCH1 252023Z 16012G17KT 29/22 A2994 RMK A01 T02930215  RH  063%=      5-min Rain = 0
KCH1 252024Z 17013G19KT 29/22 A2994 RMK A01 T02930215  RH  063%=      5-min Rain = 0
KCH1 252025Z 17012G18KT 29/22 A2994 RMK A01 T02930215  RH  063%=      5-min Rain = 0
KCH1 252026Z 16014G22KT 29/22 A2994 RMK A01 T02930215  RH  063%=      5-min Rain = 0
KCH1 252027Z 17013G18KT 29/21 A2994 RMK A01 T02930213  RH  062%=      5-min Rain = 0
KCH1 252028Z 17014G19KT 29/21 A2994 RMK A01 T02920211  RH  062%=      5-min Rain = 0
KCH1 252029Z 16012KT 29/21 A2994 RMK A01 T02910211  RH  062%=      5-min Rain = 0
KCH1 252030Z 17012KT 29/21 A2994 RMK A01 T02910212  RH  063%=      5-min Rain = 0
KCH1 252031Z 17011KT 29/21 A2994 RMK A01 T02900213  RH  063%=      5-min Rain = 0
KCH1 252032Z 17011KT 29/21 A2994 RMK A01 T02900214  RH  063%=      5-min Rain = 0
KCH1 252033Z 16010KT 29/21 A2994 RMK A01 T02900213  RH  063%=      5-min Rain = 0
KCH1 252034Z 16012KT 29/21 A2994 RMK A01 T02900214  RH  064%=      5-min Rain = 0
KCH1 252035Z 16012KT 29/21 A2994 RMK A01 T02910212  RH  063%=      5-min Rain = 0
KCH1 252036Z 17010KT 29/21 A2994 RMK A01 T02900214  RH  064%=      5-min Rain = 0
KCH1 252037Z 17011KT 29/21 A2994 RMK A01 T02900214  RH  064%=      5-min Rain = 0
KCH1 252038Z 16012G20KT 29/21 A2994 RMK A01 T02890213  RH  064%=      5-min Rain = 0
KCH1 252039Z 16018KT 29/21 A2994 RMK A01 T02880210  RH  063%=      5-min Rain = 0
KCH1 252040Z 17014KT 29/21 A2994 RMK A01 T02870209  RH  063%=      5-min Rain = 0
KCH1 252041Z 16012G17KT 29/21 A2994 RMK A01 T02860209  RH  063%=      5-min Rain = 0
KCH1 252042Z 16013KT 29/21 A2994 RMK A01 T02850209  RH  063%=      5-min Rain = 0
KCH1 252043Z 15015G23KT 29/21 A2994 RMK A01 T02850209  RH  063%=      5-min Rain = 0
KCH1 252044Z 16017G22KT 29/21 A2994 RMK A01 T02850206  RH  062%=      5-min Rain = 0
KCH1 252045Z 17016KT 29/21 A2994 RMK A01 T02860206  RH  062%=      5-min Rain = 0
KCH1 252046Z 16014KT 29/21 A2994 RMK A01 T02860208  RH  062%=      5-min Rain = 0
KCH1 252047Z 16010KT 29/21 A2995 RMK A01 T02870212  RH  064%=      5-min Rain = 0
KCH1 252048Z 16011G19KT 29/21 A2995 RMK A01 T02870211  RH  064%=      5-min Rain = 0
KCH1 252049Z 16013G18KT 29/21 A2995 RMK A01 T02880209  RH  062%=      5-min Rain = 0
KCH1 252050Z 17011KT 29/21 A2995 RMK A01 T02880210  RH  063%=      5-min Rain = 0
KCH1 252051Z 17013G18KT 29/21 A2995 RMK A01 T02890211  RH  063%=      5-min Rain = 0
KCH1 252052Z 16016KT 29/21 A2995 RMK A01 T02890208  RH  062%=      5-min Rain = 0
KCH1 252053Z 16015KT 29/21 A2994 RMK A01 T02880207  RH  062%=      5-min Rain = 0
KCH1 252054Z 16016KT 29/21 A2994 RMK A01 T02880209  RH  062%=      5-min Rain = 0
KCH1 252055Z 17015KT 29/21 A2994 RMK A01 T02880208  RH  062%=      5-min Rain = 0
KCH1 252056Z 15013G18KT 29/21 A2994 RMK A01 T02890209  RH  062%=      5-min Rain = 0
KCH1 252057Z 16015KT 29/21 A2994 RMK A01 T02890206  RH  061%=      5-min Rain = 0
KCH1 252058Z 16013KT 29/21 A2994 RMK A01 T02880207  RH  061%=      5-min Rain = 0
KCH1 252059Z 15012KT 29/21 A2994 RMK A01 T02880209  RH  062%=      5-min Rain = 0
KCH1 252100Z 16012G18KT 29/21 A2994 RMK A01 T02870209  RH  063%=      5-min Rain = 0
KCH1 252101Z 16015KT 29/21 A2994 RMK A01 T02860207  RH  062%=      5-min Rain = 0
KCH1 252102Z 15013KT 29/21 A2994 RMK A01 T02860206  RH  062%=      5-min Rain = 0
KCH1 252103Z 15012KT 29/21 A2994 RMK A01 T02850207  RH  063%=      5-min Rain = 0
KCH1 252104Z 15012KT 29/21 A2994 RMK A01 T02850206  RH  062%=      5-min Rain = 0
KCH1 252105Z 16012KT 29/20 A2994 RMK A01 T02850204  RH  062%=      5-min Rain = 0
KCH1 252106Z 16009KT 29/21 A2994 RMK A01 T02850206  RH  063%=      5-min Rain = 0
KCH1 252107Z 16010G15KT 28/21 A2994 RMK A01 T02840208  RH  063%=      5-min Rain = 0
KCH1 252108Z 16012KT 28/21 A2994 RMK A01 T02840207  RH  063%=      5-min Rain = 0
KCH1 252109Z 16011KT 28/21 A2994 RMK A01 T02830207  RH  063%=      5-min Rain = 0
KCH1 252110Z 16011KT 28/21 A2994 RMK A01 T02830206  RH  063%=      5-min Rain = 0
KCH1 252111Z 16007KT 28/21 A2994 RMK A01 T02840209  RH  064%=      5-min Rain = 0
KCH1 252112Z 16010G17KT 28/21 A2994 RMK A01 T02830210  RH  064%=      5-min Rain = 0
KCH1 252113Z 16011KT 28/21 A2994 RMK A01 T02830206  RH  063%=      5-min Rain = 0
KCH1 252114Z 16009KT 28/21 A2994 RMK A01 T02840208  RH  064%=      5-min Rain = 0
KCH1 252115Z 16009KT 28/21 A2994 RMK A01 T02840207  RH  063%=      5-min Rain = 0
KCH1 252116Z 17009KT 28/21 A2994 RMK A01 T02830208  RH  064%=      5-min Rain = 0
KCH1 252117Z 16012KT 28/21 A2994 RMK A01 T02830206  RH  063%=      5-min Rain = 0
KCH1 252118Z 16013KT 28/21 A2994 RMK A01 T02840205  RH  062%=      5-min Rain = 0
KCH1 252119Z 17013G18KT 28/20 A2994 RMK A01 T02840204  RH  062%=      5-min Rain = 0
KCH1 252120Z 16010KT 29/20 A2994 RMK A01 T02850204  RH  062%=      5-min Rain = 0
KCH1 252121Z 15008KT 29/21 A2994 RMK A01 T02850208  RH  063%=      5-min Rain = 0
KCH1 252122Z 16013KT 29/21 A2993 RMK A01 T02850205  RH  062%=      5-min Rain = 0
KCH1 252123Z 16009KT 28/21 A2993 RMK A01 T02840205  RH  062%=      5-min Rain = 0
KCH1 252124Z 16009KT 28/21 A2993 RMK A01 T02840206  RH  063%=      5-min Rain = 0
KCH1 252125Z 16010KT 28/20 A2993 RMK A01 T02830204  RH  062%=      5-min Rain = 0
KCH1 252126Z 16009KT 28/21 A2993 RMK A01 T02830205  RH  063%=      5-min Rain = 0
KCH1 252127Z 17009KT 28/20 A2993 RMK A01 T02830204  RH  062%=      5-min Rain = 0
KCH1 252128Z 16013KT 28/20 A2993 RMK A01 T02830203  RH  062%=      5-min Rain = 0
KCH1 252129Z 17010KT 28/20 A2993 RMK A01 T02830202  RH  062%=      5-min Rain = 0
KCH1 252130Z 16009KT 28/21 A2993 RMK A01 T02820205  RH  063%=      5-min Rain = 0
KCH1 252131Z 16009KT 28/20 A2993 RMK A01 T02820204  RH  063%=      5-min Rain = 0
KCH1 252132Z 16009KT 28/20 A2993 RMK A01 T02810203  RH  063%=      5-min Rain = 0
KCH1 252133Z 16012KT 28/20 A2993 RMK A01 T02810204  RH  063%=      5-min Rain = 0
KCH1 252134Z 16008KT 28/21 A2993 RMK A01 T02810205  RH  063%=      5-min Rain = 0
KCH1 252135Z 16009KT 28/21 A2993 RMK A01 T02810206  RH  064%=      5-min Rain = 0
KCH1 252136Z 16009G14KT 28/20 A2993 RMK A01 T02800204  RH  064%=      5-min Rain = 0
KCH1 252137Z 16009KT 28/21 A2993 RMK A01 T02800205  RH  064%=      5-min Rain = 0
KCH1 252138Z 16012KT 28/20 A2993 RMK A01 T02800204  RH  063%=      5-min Rain = 0
KCH1 252139Z 16010KT 28/20 A2993 RMK A01 T02800203  RH  063%=      5-min Rain = 0
KCH1 252140Z 16009KT 28/20 A2993 RMK A01 T02800204  RH  063%=      5-min Rain = 0
KCH1 252141Z 15010KT 28/20 A2993 RMK A01 T02800204  RH  063%=      5-min Rain = 0
KCH1 252142Z 16009KT 28/20 A2993 RMK A01 T02800204  RH  063%=      5-min Rain = 0
KCH1 252143Z 16007KT 28/21 A2993 RMK A01 T02800205  RH  064%=      5-min Rain = 0
KCH1 252144Z 16010KT 28/20 A2993 RMK A01 T02790203  RH  063%=      5-min Rain = 0
KCH1 252145Z 16013KT 28/20 A2993 RMK A01 T02800201  RH  062%=      5-min Rain = 0
KCH1 252146Z 17010KT 28/20 A2993 RMK A01 T02800200  RH  062%=      5-min Rain = 0
KCH1 252147Z 16008KT 28/20 A2993 RMK A01 T02800202  RH  063%=      5-min Rain = 0
KCH1 252148Z 17009KT 28/20 A2993 RMK A01 T02810203  RH  063%=      5-min Rain = 0
KCH1 252149Z 17009KT 28/20 A2993 RMK A01 T02800202  RH  063%=      5-min Rain = 0
KCH1 252150Z 16010KT 28/20 A2993 RMK A01 T02800203  RH  063%=      5-min Rain = 0
KCH1 252151Z 16010KT 28/20 A2993 RMK A01 T02790203  RH  063%=      5-min Rain = 0
KCH1 252152Z 16010KT 28/20 A2993 RMK A01 T02790204  RH  064%=      5-min Rain = 0
KCH1 252153Z 17011KT 28/20 A2993 RMK A01 T02790203  RH  063%=      5-min Rain = 0
KCH1 252154Z 16009KT 28/20 A2993 RMK A01 T02790204  RH  064%=      5-min Rain = 0
KCH1 252155Z 17011KT 28/20 A2993 RMK A01 T02790204  RH  064%=      5-min Rain = 0
KCH1 252156Z 16010KT 28/20 A2993 RMK A01 T02790202  RH  063%=      5-min Rain = 0
KCH1 252157Z 16009KT 28/20 A2994 RMK A01 T02790203  RH  063%=      5-min Rain = 0
KCH1 252158Z 16007KT 28/20 A2994 RMK A01 T02790204  RH  064%=      5-min Rain = 0
KCH1 252159Z 16007KT 28/21 A2994 RMK A01 T02790205  RH  064%=      5-min Rain = 0
KCH1 252200Z 17007KT 28/21 A2994 RMK A01 T02790206  RH  064%=      5-min Rain = 0
KCH1 252201Z 17006KT 28/21 A2994 RMK A01 T02790206  RH  065%=      5-min Rain = 0
KCH1 252202Z 16009KT 28/21 A2994 RMK A01 T02780205  RH  064%=      5-min Rain = 0
KCH1 252203Z 17008KT 28/20 A2994 RMK A01 T02780204  RH  064%=      5-min Rain = 0
KCH1 252204Z 17006KT 28/21 A2994 RMK A01 T02780206  RH  065%=      5-min Rain = 0
KCH1 252205Z 16007KT 28/21 A2994 RMK A01 T02780205  RH  065%=      5-min Rain = 0
KCH1 252206Z 16007KT 28/21 A2994 RMK A01 T02780205  RH  065%=      5-min Rain = 0
KCH1 252207Z 16008KT 28/21 A2994 RMK A01 T02780206  RH  065%=      5-min Rain = 0
KCH1 252208Z 16006KT 28/21 A2994 RMK A01 T02770205  RH  065%=      5-min Rain = 0
KCH1 252209Z 16005KT 28/21 A2994 RMK A01 T02770208  RH  066%=      5-min Rain = 0
KCH1 252210Z 17005KT 28/21 A2994 RMK A01 T02760208  RH  066%=      5-min Rain = 0
KCH1 252211Z 16009KT 28/21 A2993 RMK A01 T02760206  RH  066%=      5-min Rain = 0
KCH1 252212Z 16008KT 28/21 A2993 RMK A01 T02760205  RH  065%=      5-min Rain = 0
KCH1 252213Z 16009KT 28/20 A2993 RMK A01 T02760204  RH  065%=      5-min Rain = 0
KCH1 252214Z 16009KT 28/21 A2993 RMK A01 T02760205  RH  065%=      5-min Rain = 0
KCH1 252215Z 16008KT 28/20 A2993 RMK A01 T02760204  RH  065%=      5-min Rain = 0
KCH1 252216Z 16007KT 28/21 A2993 RMK A01 T02760205  RH  065%=      5-min Rain = 0
KCH1 252217Z 16006KT 28/21 A2993 RMK A01 T02760207  RH  066%=      5-min Rain = 0
KCH1 252218Z 16007KT 28/21 A2993 RMK A01 T02760206  RH  066%=      5-min Rain = 0
KCH1 252219Z 16008KT 28/20 A2993 RMK A01 T02760204  RH  065%=      5-min Rain = 0
KCH1 252220Z 16006KT 28/21 A2993 RMK A01 T02760207  RH  066%=      5-min Rain = 0
KCH1 252221Z 16007KT 28/21 A2993 RMK A01 T02760206  RH  066%=      5-min Rain = 0
KCH1 252222Z 16007KT 28/21 A2993 RMK A01 T02750207  RH  066%=      5-min Rain = 0
KCH1 252223Z 16007KT 28/21 A2993 RMK A01 T02750207  RH  066%=      5-min Rain = 0
KCH1 252224Z 16007KT 28/21 A2993 RMK A01 T02750207  RH  066%=      5-min Rain = 0
KCH1 252225Z 16007KT 28/21 A2993 RMK A01 T02750206  RH  066%=      5-min Rain = 0
KCH1 252226Z 17009KT 28/21 A2993 RMK A01 T02750205  RH  065%=      5-min Rain = 0
KCH1 252227Z 17007KT 28/21 A2993 RMK A01 T02760205  RH  065%=      5-min Rain = 0
KCH1 252228Z 17007KT 28/21 A2993 RMK A01 T02760205  RH  065%=      5-min Rain = 0
KCH1 252229Z 16008KT 28/21 A2993 RMK A01 T02760205  RH  065%=      5-min Rain = 0
KCH1 252230Z 16006KT 28/21 A2994 RMK A01 T02760207  RH  066%=      5-min Rain = 0
KCH1 252231Z 17007KT 28/21 A2994 RMK A01 T02750207  RH  066%=      5-min Rain = 0
KCH1 252232Z 17006KT 28/21 A2994 RMK A01 T02750206  RH  066%=      5-min Rain = 0
KCH1 252233Z 17007KT 28/21 A2993 RMK A01 T02750206  RH  066%=      5-min Rain = 0
KCH1 252234Z 16006KT 28/21 A2993 RMK A01 T02750207  RH  066%=      5-min Rain = 0
KCH1 252235Z 16005KT 28/21 A2993 RMK A01 T02750209  RH  067%=      5-min Rain = 0
KCH1 252236Z 16007KT 27/21 A2993 RMK A01 T02740207  RH  067%=      5-min Rain = 0
KCH1 252237Z 16006KT 27/21 A2993 RMK A01 T02730207  RH  067%=      5-min Rain = 0
KCH1 252238Z 15007KT 27/21 A2993 RMK A01 T02730207  RH  067%=      5-min Rain = 0
KCH1 252239Z 15006KT 27/21 A2993 RMK A01 T02730205  RH  066%=      5-min Rain = 0
KCH1 252240Z 16006KT 27/21 A2993 RMK A01 T02730205  RH  066%=      5-min Rain = 0
KCH1 252241Z 16006KT 27/21 A2993 RMK A01 T02740206  RH  066%=      5-min Rain = 0
KCH1 252242Z 15006KT 27/21 A2993 RMK A01 T02740207  RH  067%=      5-min Rain = 0
KCH1 252243Z 15006KT 27/21 A2993 RMK A01 T02740206  RH  067%=      5-min Rain = 0
KCH1 252244Z 15005KT 27/21 A2993 RMK A01 T02730206  RH  067%=      5-min Rain = 0
KCH1 252245Z 15005KT 27/21 A2993 RMK A01 T02730206  RH  067%=      5-min Rain = 0
KCH1 252246Z 15004KT 27/21 A2993 RMK A01 T02730209  RH  068%=      5-min Rain = 0
KCH1 252247Z 16004KT 27/21 A2993 RMK A01 T02720208  RH  068%=      5-min Rain = 0
KCH1 252248Z 16006KT 27/21 A2993 RMK A01 T02720207  RH  068%=      5-min Rain = 0
KCH1 252249Z 15006KT 27/21 A2993 RMK A01 T02720206  RH  067%=      5-min Rain = 0
KCH1 252250Z 16006KT 27/21 A2993 RMK A01 T02720206  RH  067%=      5-min Rain = 0
KCH1 252251Z 15005KT 27/21 A2993 RMK A01 T02720207  RH  068%=      5-min Rain = 0
KCH1 252252Z 16005KT 27/21 A2993 RMK A01 T02720207  RH  068%=      5-min Rain = 0
KCH1 252253Z 15005KT 27/21 A2993 RMK A01 T02720207  RH  068%=      5-min Rain = 0
KCH1 252254Z 16005KT 27/21 A2993 RMK A01 T02710206  RH  068%=      5-min Rain = 0
KCH1 252255Z 16005KT 27/21 A2994 RMK A01 T02710206  RH  068%=      5-min Rain = 0
KCH1 252256Z 17005KT 27/21 A2994 RMK A01 T02710206  RH  067%=      5-min Rain = 0
KCH1 252257Z 17005KT 27/21 A2994 RMK A01 T02720206  RH  067%=      5-min Rain = 0
KCH1 252258Z 17005KT 27/21 A2994 RMK A01 T02720207  RH  068%=      5-min Rain = 0
KCH1 252259Z 17004KT 27/21 A2994 RMK A01 T02720208  RH  068%=      5-min Rain = 0
KCH1 252300Z 16003KT 27/21 A2994 RMK A01 T02710209  RH  069%=      5-min Rain = 0
KCH1 252301Z 15004KT 27/21 A2993 RMK A01 T02710210  RH  069%=      5-min Rain = 0
KCH1 252302Z 14004KT 27/21 A2993 RMK A01 T02710209  RH  069%=      5-min Rain = 0
KCH1 252303Z 14004KT 27/21 A2993 RMK A01 T02700209  RH  069%=      5-min Rain = 0
KCH1 252304Z 15004KT 27/21 A2993 RMK A01 T02700210  RH  070%=      5-min Rain = 0
KCH1 252305Z 14004KT 27/21 A2993 RMK A01 T02690209  RH  070%=      5-min Rain = 0
KCH1 252306Z 15003KT 27/21 A2993 RMK A01 T02690210  RH  070%=      5-min Rain = 0
KCH1 252307Z 15003KT 27/21 A2994 RMK A01 T02700211  RH  070%=      5-min Rain = 0
KCH1 252308Z 15003KT 27/21 A2994 RMK A01 T02690211  RH  071%=      5-min Rain = 0
KCH1 252309Z 15004KT 27/21 A2994 RMK A01 T02690211  RH  070%=      5-min Rain = 0
KCH1 252310Z 16003KT 27/21 A2994 RMK A01 T02690211  RH  071%=      5-min Rain = 0
KCH1 252311Z 16003KT 27/21 A2994 RMK A01 T02690212  RH  071%=      5-min Rain = 0
KCH1 252312Z 15003KT 27/21 A2993 RMK A01 T02690211  RH  071%=      5-min Rain = 0
KCH1 252313Z 15003KT 27/21 A2993 RMK A01 T02690212  RH  071%=      5-min Rain = 0
KCH1 252314Z 15004KT 27/21 A2993 RMK A01 T02690213  RH  071%=      5-min Rain = 0
KCH1 252315Z 15004KT 27/21 A2993 RMK A01 T02690212  RH  071%=      5-min Rain = 0
KCH1 252316Z 15004KT 27/21 A2993 RMK A01 T02690211  RH  071%=      5-min Rain = 0
KCH1 252317Z 15004KT 27/21 A2994 RMK A01 T02690211  RH  071%=      5-min Rain = 0
KCH1 252318Z 15004KT 27/21 A2994 RMK A01 T02680211  RH  071%=      5-min Rain = 0
KCH1 252319Z 16004KT 27/21 A2994 RMK A01 T02680212  RH  071%=      5-min Rain = 0
KCH1 252320Z 15004KT 27/21 A2994 RMK A01 T02680210  RH  071%=      5-min Rain = 0
KCH1 252321Z 14004KT 27/21 A2994 RMK A01 T02680212  RH  071%=      5-min Rain = 0
KCH1 252322Z 15005KT 27/21 A2994 RMK A01 T02680210  RH  070%=      5-min Rain = 0
KCH1 252323Z 15004KT 27/21 A2994 RMK A01 T02690211  RH  071%=      5-min Rain = 0
KCH1 252324Z 15005KT 27/21 A2994 RMK A01 T02680211  RH  071%=      5-min Rain = 0
KCH1 252325Z 15005KT 27/21 A2994 RMK A01 T02690211  RH  071%=      5-min Rain = 0
KCH1 252326Z 15005KT 27/21 A2994 RMK A01 T02680210  RH  070%=      5-min Rain = 0
KCH1 252327Z 15005KT 27/21 A2993 RMK A01 T02690210  RH  070%=      5-min Rain = 0
KCH1 252328Z 15004KT 27/21 A2993 RMK A01 T02680210  RH  070%=      5-min Rain = 0
KCH1 252329Z 15005KT 27/21 A2993 RMK A01 T02690210  RH  070%=      5-min Rain = 0
KCH1 252330Z 15004KT 27/21 A2993 RMK A01 T02680210  RH  070%=      5-min Rain = 0
KCH1 252331Z 15004KT 27/21 A2993 RMK A01 T02680211  RH  071%=      5-min Rain = 0
KCH1 252332Z 15005KT 27/21 A2993 RMK A01 T02680210  RH  070%=      5-min Rain = 0
KCH1 252333Z 15005KT 27/21 A2993 RMK A01 T02690210  RH  070%=      5-min Rain = 0
KCH1 252334Z 15004KT 27/21 A2993 RMK A01 T02690212  RH  071%=      5-min Rain = 0
KCH1 252335Z 15004KT 27/21 A2993 RMK A01 T02680212  RH  071%=      5-min Rain = 0
KCH1 252336Z 14005KT 27/21 A2993 RMK A01 T02670211  RH  071%=      5-min Rain = 0
KCH1 252337Z 14004KT 27/21 A2993 RMK A01 T02670211  RH  071%=      5-min Rain = 0
KCH1 252338Z 15005KT 27/21 A2993 RMK A01 T02670211  RH  071%=      5-min Rain = 0
KCH1 252339Z 15005KT 27/21 A2993 RMK A01 T02670210  RH  071%=      5-min Rain = 0
KCH1 252340Z 15006KT 27/21 A2993 RMK A01 T02670210  RH  071%=      5-min Rain = 0
KCH1 252341Z 15006KT 27/21 A2993 RMK A01 T02670208  RH  070%=      5-min Rain = 0
KCH1 252342Z 16007KT 27/21 A2993 RMK A01 T02670208  RH  070%=      5-min Rain = 0
KCH1 252343Z 16007KT 27/21 A2993 RMK A01 T02680207  RH  069%=      5-min Rain = 0
KCH1 252344Z 16006KT 27/21 A2993 RMK A01 T02680208  RH  070%=      5-min Rain = 0
KCH1 252345Z 16005KT 27/21 A2993 RMK A01 T02680208  RH  070%=      5-min Rain = 0
KCH1 252346Z 16006KT 27/21 A2993 RMK A01 T02680209  RH  070%=      5-min Rain = 0
KCH1 252347Z 16006KT 27/21 A2993 RMK A01 T02670209  RH  071%=      5-min Rain = 0
KCH1 252348Z 16006KT 27/21 A2993 RMK A01 T02670207  RH  070%=      5-min Rain = 0
KCH1 252349Z 16006KT 27/21 A2993 RMK A01 T02670207  RH  070%=      5-min Rain = 0
KCH1 252350Z 16006KT 27/21 A2993 RMK A01 T02670207  RH  070%=      5-min Rain = 0
KCH1 252351Z 17007KT 27/21 A2993 RMK A01 T02660207  RH  070%=      5-min Rain = 0
KCH1 252352Z 17006KT 27/21 A2993 RMK A01 T02670208  RH  070%=      5-min Rain = 0
KCH1 252353Z 16007KT 27/21 A2993 RMK A01 T02660207  RH  070%=      5-min Rain = 0
KCH1 252354Z 16006KT 27/21 A2993 RMK A01 T02660207  RH  070%=      5-min Rain = 0
KCH1 252355Z 16007KT 27/21 A2992 RMK A01 T02660208  RH  070%=      5-min Rain = 0
KCH1 252356Z 15007KT 27/21 A2992 RMK A01 T02650207  RH  070%=      5-min Rain = 0
KCH1 252357Z 15006KT 27/21 A2992 RMK A01 T02650207  RH  071%=      5-min Rain = 0
KCH1 252358Z 15006KT 27/21 A2992 RMK A01 T02650206  RH  070%=      5-min Rain = 0
KCH1 252359Z 16006KT 27/21 A2992 RMK A01 T02650206  RH  070%=      5-min Rain = 0
KCH1 260000Z 15005KT 27/21 A2992 RMK A01 T02650206  RH  070%=      5-min Rain = 0
KCH1 260001Z 15006KT 27/21 A2992 RMK A01 T02650206  RH  070%=      5-min Rain = 0
KCH1 260002Z 15007KT 27/21 A2992 RMK A01 T02650206  RH  070%=      5-min Rain = 0
KCH1 260003Z 14006KT 27/21 A2992 RMK A01 T02650207  RH  070%=      5-min Rain = 0
KCH1 260004Z 14007KT 26/21 A2992 RMK A01 T02640206  RH  070%=      5-min Rain = 0
KCH1 260005Z 15006KT 26/21 A2992 RMK A01 T02640207  RH  071%=      5-min Rain = 0
KCH1 260006Z 15007KT 26/21 A2992 RMK A01 T02640207  RH  071%=      5-min Rain = 0
KCH1 260007Z 15005KT 26/21 A2993 RMK A01 T02630206  RH  071%=      5-min Rain = 0
KCH1 260008Z 15006KT 26/21 A2993 RMK A01 T02630207  RH  071%=      5-min Rain = 0
KCH1 260009Z 15005KT 26/21 A2993 RMK A01 T02630205  RH  070%=      5-min Rain = 0
KCH1 260010Z 15005KT 26/21 A2993 RMK A01 T02630206  RH  071%=      5-min Rain = 0
KCH1 260011Z 14004KT 26/21 A2993 RMK A01 T02630206  RH  071%=      5-min Rain = 0
KCH1 260012Z 14005KT 26/21 A2993 RMK A01 T02630206  RH  071%=      5-min Rain = 0
KCH1 260013Z 14005KT 26/21 A2992 RMK A01 T02630205  RH  071%=      5-min Rain = 0
KCH1 260014Z 15007KT 26/20 A2992 RMK A01 T02620204  RH  070%=      5-min Rain = 0
KCH1 260015Z 15006KT 26/20 A2993 RMK A01 T02630204  RH  070%=      5-min Rain = 0
KCH1 260016Z 16006KT 26/21 A2993 RMK A01 T02630205  RH  070%=      5-min Rain = 0
KCH1 260017Z 16006KT 26/21 A2993 RMK A01 T02630205  RH  070%=      5-min Rain = 0
KCH1 260018Z 17005KT 26/21 A2993 RMK A01 T02630205  RH  070%=      5-min Rain = 0
KCH1 260019Z 17005KT 26/21 A2994 RMK A01 T02630205  RH  071%=      5-min Rain = 0
KCH1 260020Z 17004KT 26/21 A2994 RMK A01 T02630205  RH  070%=      5-min Rain = 0
KCH1 260021Z 17004KT 26/21 A2994 RMK A01 T02630206  RH  071%=      5-min Rain = 0
KCH1 260022Z 17004KT 26/21 A2994 RMK A01 T02620206  RH  071%=      5-min Rain = 0
KCH1 260023Z 18004KT 26/21 A2994 RMK A01 T02610205  RH  071%=      5-min Rain = 0
KCH1 260024Z 17005KT 26/21 A2994 RMK A01 T02620205  RH  071%=      5-min Rain = 0
KCH1 260025Z 16006KT 26/20 A2994 RMK A01 T02620204  RH  071%=      5-min Rain = 0
KCH1 260026Z 15005KT 26/21 A2994 RMK A01 T02620205  RH  071%=      5-min Rain = 0
KCH1 260027Z 16007KT 26/21 A2994 RMK A01 T02620206  RH  071%=      5-min Rain = 0
KCH1 260028Z 14005KT 26/21 A2993 RMK A01 T02620206  RH  071%=      5-min Rain = 0
KCH1 260029Z 14005KT 26/21 A2993 RMK A01 T02610206  RH  072%=      5-min Rain = 0
KCH1 260030Z 13006KT 26/21 A2993 RMK A01 T02610206  RH  072%=      5-min Rain = 0
KCH1 260031Z 14006KT 26/21 A2992 RMK A01 T02610206  RH  072%=      5-min Rain = 0
KCH1 260032Z 14005KT 26/21 A2993 RMK A01 T02600205  RH  072%=      5-min Rain = 0
KCH1 260033Z 14006KT 26/21 A2993 RMK A01 T02600206  RH  072%=      5-min Rain = 0
KCH1 260034Z 14007KT 26/21 A2993 RMK A01 T02600206  RH  072%=      5-min Rain = 0
KCH1 260035Z 15006KT 26/21 A2993 RMK A01 T02600206  RH  072%=      5-min Rain = 0
KCH1 260036Z 15006KT 26/21 A2993 RMK A01 T02590205  RH  072%=      5-min Rain = 0
KCH1 260037Z 14007KT 26/21 A2993 RMK A01 T02590205  RH  072%=      5-min Rain = 0
KCH1 260038Z 15007KT 26/21 A2993 RMK A01 T02590205  RH  072%=      5-min Rain = 0
KCH1 260039Z 15006KT 26/21 A2993 RMK A01 T02590205  RH  072%=      5-min Rain = 0
KCH1 260040Z 15007KT 26/21 A2993 RMK A01 T02600205  RH  072%=      5-min Rain = 0
KCH1 260041Z 16006KT 26/21 A2993 RMK A01 T02600205  RH  072%=      5-min Rain = 0
KCH1 260042Z 15007KT 26/21 A2993 RMK A01 T02600206  RH  072%=      5-min Rain = 0
KCH1 260043Z 16007KT 26/21 A2993 RMK A01 T02600205  RH  072%=      5-min Rain = 0
KCH1 260044Z 17008KT 26/20 A2993 RMK A01 T02600204  RH  071%=      5-min Rain = 0
KCH1 260045Z 16006KT 26/21 A2993 RMK A01 T02610205  RH  071%=      5-min Rain = 0
KCH1 260046Z 15006KT 26/21 A2993 RMK A01 T02610205  RH  071%=      5-min Rain = 0
KCH1 260047Z 15007KT 26/21 A2993 RMK A01 T02610206  RH  072%=      5-min Rain = 0
KCH1 260048Z 15005KT 26/21 A2993 RMK A01 T02610206  RH  072%=      5-min Rain = 0
KCH1 260049Z 14007KT 26/21 A2993 RMK A01 T02600206  RH  072%=      5-min Rain = 0
KCH1 260050Z 15007KT 26/21 A2993 RMK A01 T02600206  RH  072%=      5-min Rain = 0
KCH1 260051Z 15007KT 26/21 A2993 RMK A01 T02590206  RH  072%=      5-min Rain = 0
KCH1 260052Z 15008KT 26/21 A2993 RMK A01 T02590205  RH  072%=      5-min Rain = 0
KCH1 260053Z 15006KT 26/21 A2993 RMK A01 T02590206  RH  073%=      5-min Rain = 0
KCH1 260054Z 14006KT 26/21 A2993 RMK A01 T02590206  RH  073%=      5-min Rain = 0
KCH1 260055Z 14007KT 26/21 A2993 RMK A01 T02590206  RH  073%=      5-min Rain = 0
KCH1 260056Z 15008KT 26/21 A2993 RMK A01 T02580205  RH  073%=      5-min Rain = 0
KCH1 260057Z 15007KT 26/21 A2993 RMK A01 T02590205  RH  072%=      5-min Rain = 0
KCH1 260058Z 15008KT 26/21 A2993 RMK A01 T02580205  RH  072%=      5-min Rain = 0
KCH1 260059Z 16007KT 26/21 A2994 RMK A01 T02590205  RH  072%=      5-min Rain = 0
KCH1 260100Z 15007KT 26/21 A2994 RMK A01 T02590205  RH  072%=      5-min Rain = 0
KCH1 260101Z 15007KT 26/20 A2994 RMK A01 T02600204  RH  072%=      5-min Rain = 0
KCH1 260102Z 15006KT 26/21 A2994 RMK A01 T02600205  RH  072%=      5-min Rain = 0
KCH1 260103Z 15008KT 26/21 A2994 RMK A01 T02600206  RH  072%=      5-min Rain = 0
KCH1 260104Z 15007KT 26/21 A2994 RMK A01 T02590205  RH  072%=      5-min Rain = 0
KCH1 260105Z 15007KT 26/21 A2994 RMK A01 T02590205  RH  072%=      5-min Rain = 0
KCH1 260106Z 15007KT 26/21 A2994 RMK A01 T02590205  RH  072%=      5-min Rain = 0
KCH1 260107Z 15007KT 26/20 A2994 RMK A01 T02590204  RH  072%=      5-min Rain = 0
KCH1 260108Z 15007KT 26/21 A2994 RMK A01 T02590205  RH  072%=      5-min Rain = 0
KCH1 260109Z 16007KT 26/21 A2994 RMK A01 T02590205  RH  072%=      5-min Rain = 0
KCH1 260110Z 15006KT 26/20 A2994 RMK A01 T02590204  RH  072%=      5-min Rain = 0
KCH1 260111Z 16007KT 26/20 A2994 RMK A01 T02590204  RH  072%=      5-min Rain = 0
KCH1 260112Z 16007KT 26/21 A2994 RMK A01 T02590205  RH  072%=      5-min Rain = 0
KCH1 260113Z 15008KT 26/20 A2994 RMK A01 T02590204  RH  072%=      5-min Rain = 0
KCH1 260114Z 16006KT 26/20 A2994 RMK A01 T02580204  RH  072%=      5-min Rain = 0
KCH1 260115Z 15007KT 26/20 A2994 RMK A01 T02590204  RH  072%=      5-min Rain = 0
KCH1 260116Z 16006KT 26/20 A2994 RMK A01 T02580203  RH  072%=      5-min Rain = 0
KCH1 260117Z 15006KT 26/20 A2994 RMK A01 T02590204  RH  072%=      5-min Rain = 0
KCH1 260118Z 15006KT 26/21 A2994 RMK A01 T02590205  RH  072%=      5-min Rain = 0
KCH1 260119Z 15007KT 26/20 A2994 RMK A01 T02590204  RH  072%=      5-min Rain = 0
KCH1 260120Z 15007KT 26/20 A2994 RMK A01 T02580204  RH  072%=      5-min Rain = 0
KCH1 260121Z 15006KT 26/20 A2994 RMK A01 T02580204  RH  072%=      5-min Rain = 0
KCH1 260122Z 15007KT 26/20 A2994 RMK A01 T02570204  RH  072%=      5-min Rain = 0
KCH1 260123Z 16008KT 26/20 A2994 RMK A01 T02570204  RH  072%=      5-min Rain = 0
KCH1 260124Z 15006KT 26/20 A2994 RMK A01 T02570203  RH  072%=      5-min Rain = 0
KCH1 260125Z 15007KT 26/20 A2994 RMK A01 T02570204  RH  072%=      5-min Rain = 0
KCH1 260126Z 15007KT 26/20 A2994 RMK A01 T02570204  RH  073%=      5-min Rain = 0
KCH1 260127Z 16007KT 26/20 A2994 RMK A01 T02570204  RH  072%=      5-min Rain = 0
KCH1 260128Z 16008KT 26/20 A2995 RMK A01 T02560204  RH  073%=      5-min Rain = 0
KCH1 260129Z 16007KT 26/20 A2995 RMK A01 T02560203  RH  072%=      5-min Rain = 0
KCH1 260130Z 17007KT 26/20 A2995 RMK A01 T02560202  RH  072%=      5-min Rain = 0
KCH1 260131Z 17006KT 26/20 A2995 RMK A01 T02560203  RH  072%=      5-min Rain = 0
KCH1 260132Z 17008KT 26/20 A2996 RMK A01 T02570203  RH  072%=      5-min Rain = 0
KCH1 260133Z 18006KT 26/20 A2996 RMK A01 T02570203  RH  072%=      5-min Rain = 0
KCH1 260134Z 17005KT 26/20 A2996 RMK A01 T02560203  RH  072%=      5-min Rain = 0
KCH1 260135Z 18005KT 26/20 A2996 RMK A01 T02560203  RH  073%=      5-min Rain = 0
KCH1 260136Z 17005KT 26/20 A2996 RMK A01 T02550203  RH  073%=      5-min Rain = 0
KCH1 260137Z 18006KT 26/20 A2996 RMK A01 T02550203  RH  073%=      5-min Rain = 0
KCH1 260138Z 17006KT 26/20 A2996 RMK A01 T02550203  RH  073%=      5-min Rain = 0
KCH1 260139Z 17007KT 26/20 A2996 RMK A01 T02550202  RH  073%=      5-min Rain = 0
KCH1 260140Z 17006KT 26/20 A2996 RMK A01 T02550202  RH  072%=      5-min Rain = 0
KCH1 260141Z 18007KT 26/20 A2996 RMK A01 T02550202  RH  073%=      5-min Rain = 0
KCH1 260142Z 17006KT 26/20 A2996 RMK A01 T02550202  RH  072%=      5-min Rain = 0
KCH1 260143Z 17005KT 26/20 A2996 RMK A01 T02550202  RH  073%=      5-min Rain = 0
KCH1 260144Z 17006KT 26/20 A2996 RMK A01 T02550203  RH  073%=      5-min Rain = 0
KCH1 260145Z 17007KT 26/20 A2996 RMK A01 T02550202  RH  073%=      5-min Rain = 0
KCH1 260146Z 17007KT 25/20 A2996 RMK A01 T02540201  RH  072%=      5-min Rain = 0
KCH1 260147Z 17008KT 25/20 A2996 RMK A01 T02540201  RH  072%=      5-min Rain = 0
KCH1 260148Z 16005KT 26/20 A2996 RMK A01 T02550201  RH  072%=      5-min Rain = 0
KCH1 260149Z 17007KT 26/20 A2996 RMK A01 T02550202  RH  072%=      5-min Rain = 0
KCH1 260150Z 16006KT 26/20 A2996 RMK A01 T02550201  RH  072%=      5-min Rain = 0
KCH1 260151Z 17008KT 25/20 A2996 RMK A01 T02540201  RH  072%=      5-min Rain = 0
KCH1 260152Z 17006KT 25/20 A2996 RMK A01 T02540201  RH  072%=      5-min Rain = 0
KCH1 260153Z 17008KT 25/20 A2996 RMK A01 T02540202  RH  073%=      5-min Rain = 0
KCH1 260154Z 17007KT 25/20 A2996 RMK A01 T02530201  RH  073%=      5-min Rain = 0
KCH1 260155Z 17008KT 25/20 A2996 RMK A01 T02530201  RH  073%=      5-min Rain = 0
KCH1 260156Z 16007KT 25/20 A2996 RMK A01 T02530201  RH  073%=      5-min Rain = 0
KCH1 260157Z 17008KT 25/20 A2996 RMK A01 T02530200  RH  073%=      5-min Rain = 0
KCH1 260158Z 17009KT 25/20 A2996 RMK A01 T02530200  RH  072%=      5-min Rain = 0
KCH1 260159Z 17009KT 25/20 A2996 RMK A01 T02530199  RH  072%=      5-min Rain = 0
KCH1 260200Z 17009KT 25/20 A2996 RMK A01 T02540198  RH  071%=      5-min Rain = 0
KCH1 260201Z 17009KT 26/20 A2996 RMK A01 T02550199  RH  071%=      5-min Rain = 0
KCH1 260202Z 18008KT 26/20 A2996 RMK A01 T02550199  RH  071%=      5-min Rain = 0
KCH1 260203Z 18009KT 26/20 A2996 RMK A01 T02550198  RH  071%=      5-min Rain = 0
KCH1 260204Z 17009KT 26/20 A2996 RMK A01 T02550198  RH  071%=      5-min Rain = 0
KCH1 260205Z 18006KT 26/20 A2996 RMK A01 T02550198  RH  071%=      5-min Rain = 0
KCH1 260206Z 17008KT 26/20 A2996 RMK A01 T02550199  RH  071%=      5-min Rain = 0
KCH1 260207Z 17007KT 26/20 A2996 RMK A01 T02550197  RH  070%=      5-min Rain = 0
KCH1 260208Z 17007KT 26/20 A2996 RMK A01 T02550198  RH  071%=      5-min Rain = 0
KCH1 260209Z 17007G12KT 26/20 A2996 RMK A01 T02550198  RH  071%=      5-min Rain = 0
KCH1 260210Z 18007KT 26/20 A2996 RMK A01 T02550198  RH  070%=      5-min Rain = 0
KCH1 260211Z 17006KT 26/20 A2996 RMK A01 T02550198  RH  071%=      5-min Rain = 0
KCH1 260212Z 18006KT 25/20 A2996 RMK A01 T02540198  RH  071%=      5-min Rain = 0
KCH1 260213Z 17008KT 25/20 A2996 RMK A01 T02540198  RH  071%=      5-min Rain = 0
KCH1 260214Z 18007KT 25/20 A2997 RMK A01 T02540198  RH  071%=      5-min Rain = 0
KCH1 260215Z 18008KT 25/20 A2997 RMK A01 T02540197  RH  071%=      5-min Rain = 0
KCH1 260216Z 18008KT 25/20 A2997 RMK A01 T02540196  RH  071%=      5-min Rain = 0
KCH1 260217Z 18007KT 25/20 A2997 RMK A01 T02540196  RH  070%=      5-min Rain = 0
KCH1 260218Z 18007KT 25/20 A2997 RMK A01 T02540197  RH  070%=      5-min Rain = 0
KCH1 260219Z 18006KT 26/20 A2997 RMK A01 T02550197  RH  070%=      5-min Rain = 0
KCH1 260220Z 19006KT 26/20 A2997 RMK A01 T02550197  RH  071%=      5-min Rain = 0
KCH1 260221Z 19008KT 25/20 A2997 RMK A01 T02540197  RH  071%=      5-min Rain = 0
KCH1 260222Z 19008KT 25/20 A2997 RMK A01 T02540197  RH  071%=      5-min Rain = 0
KCH1 260223Z 19007KT 25/20 A2997 RMK A01 T02540197  RH  071%=      5-min Rain = 0
KCH1 260224Z 18006KT 25/20 A2997 RMK A01 T02540197  RH  071%=      5-min Rain = 0
KCH1 260225Z 18008KT 25/20 A2997 RMK A01 T02540198  RH  071%=      5-min Rain = 0
KCH1 260226Z 18009KT 25/20 A2997 RMK A01 T02530197  RH  071%=      5-min Rain = 0
KCH1 260227Z 18009KT 25/20 A2997 RMK A01 T02530196  RH  071%=      5-min Rain = 0
KCH1 260228Z 18009KT 25/20 A2996 RMK A01 T02530196  RH  071%=      5-min Rain = 0
KCH1 260229Z 18008KT 25/20 A2997 RMK A01 T02530197  RH  071%=      5-min Rain = 0
KCH1 260230Z 19008KT 25/20 A2997 RMK A01 T02530196  RH  071%=      5-min Rain = 0
KCH1 260231Z 18008KT 25/20 A2997 RMK A01 T02530196  RH  071%=      5-min Rain = 0
KCH1 260232Z 18007KT 25/20 A2997 RMK A01 T02530196  RH  071%=      5-min Rain = 0
KCH1 260233Z 19006KT 25/20 A2997 RMK A01 T02530196  RH  071%=      5-min Rain = 0
KCH1 260234Z 19007KT 25/20 A2997 RMK A01 T02530197  RH  071%=      5-min Rain = 0
KCH1 260235Z 19007KT 25/20 A2996 RMK A01 T02530196  RH  071%=      5-min Rain = 0
KCH1 260236Z 18007KT 25/20 A2996 RMK A01 T02530197  RH  071%=      5-min Rain = 0
KCH1 260237Z 17006KT 25/20 A2996 RMK A01 T02520196  RH  071%=      5-min Rain = 0
KCH1 260238Z 17008KT 25/20 A2996 RMK A01 T02510196  RH  071%=      5-min Rain = 0
KCH1 260239Z 18007KT 25/20 A2996 RMK A01 T02510196  RH  071%=      5-min Rain = 0
KCH1 260240Z 18007KT 25/20 A2996 RMK A01 T02510196  RH  071%=      5-min Rain = 0
KCH1 260241Z 18006KT 25/20 A2996 RMK A01 T02510196  RH  071%=      5-min Rain = 0
KCH1 260242Z 19007KT 25/20 A2996 RMK A01 T02510196  RH  072%=      5-min Rain = 0
KCH1 260243Z 18008KT 25/20 A2996 RMK A01 T02510195  RH  071%=      5-min Rain = 0
KCH1 260244Z 18007KT 25/20 A2996 RMK A01 T02510196  RH  071%=      5-min Rain = 0
KCH1 260245Z 17007KT 25/20 A2996 RMK A01 T02510195  RH  071%=      5-min Rain = 0
KCH1 260246Z 18006KT 25/20 A2996 RMK A01 T02510196  RH  071%=      5-min Rain = 0
KCH1 260247Z 18007KT 25/20 A2996 RMK A01 T02510196  RH  072%=      5-min Rain = 0
KCH1 260248Z 17007KT 25/20 A2996 RMK A01 T02500196  RH  072%=      5-min Rain = 0
KCH1 260249Z 17006KT 25/20 A2996 RMK A01 T02500196  RH  072%=      5-min Rain = 0
KCH1 260250Z 16006KT 25/20 A2996 RMK A01 T02500195  RH  072%=      5-min Rain = 0
KCH1 260251Z 17007KT 25/20 A2995 RMK A01 T02500196  RH  072%=      5-min Rain = 0
KCH1 260252Z 16007KT 25/20 A2995 RMK A01 T02500195  RH  072%=      5-min Rain = 0
KCH1 260253Z 16007KT 25/20 A2995 RMK A01 T02500195  RH  072%=      5-min Rain = 0
KCH1 260254Z 16006KT 25/20 A2995 RMK A01 T02500196  RH  072%=      5-min Rain = 0
KCH1 260255Z 16006KT 25/20 A2995 RMK A01 T02500196  RH  072%=      5-min Rain = 0
KCH1 260256Z 17006KT 25/20 A2995 RMK A01 T02500196  RH  072%=      5-min Rain = 0
KCH1 260257Z 16007KT 25/20 A2995 RMK A01 T02490196  RH  072%=      5-min Rain = 0
KCH1 260258Z 16007KT 25/20 A2995 RMK A01 T02490196  RH  072%=      5-min Rain = 0
KCH1 260259Z 15006KT 25/20 A2995 RMK A01 T02490196  RH  072%=      5-min Rain = 0
KCH1 260300Z 16007KT 25/20 A2995 RMK A01 T02480196  RH  072%=      5-min Rain = 0
KCH1 260301Z 16008KT 25/20 A2995 RMK A01 T02480196  RH  072%=      5-min Rain = 0
KCH1 260302Z 16007KT 25/20 A2995 RMK A01 T02480196  RH  073%=      5-min Rain = 0
KCH1 260303Z 16007KT 25/20 A2995 RMK A01 T02480196  RH  073%=      5-min Rain = 0
KCH1 260304Z 16007KT 25/20 A2995 RMK A01 T02470196  RH  073%=      5-min Rain = 0
KCH1 260305Z 15007KT 25/20 A2995 RMK A01 T02470196  RH  074%=      5-min Rain = 0
KCH1 260306Z 15009KT 25/20 A2995 RMK A01 T02460196  RH  074%=      5-min Rain = 0
KCH1 260307Z 16008KT 25/20 A2995 RMK A01 T02460196  RH  074%=      5-min Rain = 0
KCH1 260308Z 16008KT 25/20 A2994 RMK A01 T02460197  RH  074%=      5-min Rain = 0
KCH1 260309Z 15009KT 25/20 A2994 RMK A01 T02450197  RH  074%=      5-min Rain = 0
KCH1 260310Z 15007KT 24/20 A2994 RMK A01 T02440196  RH  075%=      5-min Rain = 0
KCH1 260311Z 15008KT 24/20 A2994 RMK A01 T02440197  RH  075%=      5-min Rain = 0
KCH1 260312Z 16008KT 24/20 A2994 RMK A01 T02430197  RH  075%=      5-min Rain = 0
KCH1 260313Z 15009KT 24/20 A2994 RMK A01 T02430197  RH  076%=      5-min Rain = 0
KCH1 260314Z 16008KT 24/20 A2994 RMK A01 T02430197  RH  076%=      5-min Rain = 0
KCH1 260315Z 16008KT 24/20 A2995 RMK A01 T02430197  RH  076%=      5-min Rain = 0
KCH1 260316Z 16008KT 24/20 A2995 RMK A01 T02420197  RH  076%=      5-min Rain = 0
KCH1 260317Z 16008KT 24/20 A2995 RMK A01 T02420197  RH  076%=      5-min Rain = 0
KCH1 260318Z 16008KT 24/20 A2995 RMK A01 T02420197  RH  076%=      5-min Rain = 0
KCH1 260319Z 16008KT 24/20 A2995 RMK A01 T02410196  RH  076%=      5-min Rain = 0
KCH1 260320Z 16008KT 24/20 A2995 RMK A01 T02420196  RH  076%=      5-min Rain = 0
KCH1 260321Z 17008KT 24/20 A2995 RMK A01 T02420197  RH  076%=      5-min Rain = 0
KCH1 260322Z 17007KT 24/20 A2995 RMK A01 T02420197  RH  076%=      5-min Rain = 0
KCH1 260323Z 17007KT 24/20 A2995 RMK A01 T02410197  RH  076%=      5-min Rain = 0
KCH1 260324Z 16008KT 24/20 A2995 RMK A01 T02410197  RH  076%=      5-min Rain = 0
KCH1 260325Z 16007KT 24/20 A2995 RMK A01 T02410197  RH  076%=      5-min Rain = 0
KCH1 260326Z 17008KT 24/20 A2996 RMK A01 T02400197  RH  077%=      5-min Rain = 0
KCH1 260327Z 16009KT 24/20 A2996 RMK A01 T02400197  RH  077%=      5-min Rain = 0
KCH1 260328Z 17008KT 24/20 A2996 RMK A01 T02400196  RH  076%=      5-min Rain = 0
KCH1 260329Z 17009KT 24/20 A2996 RMK A01 T02400196  RH  076%=      5-min Rain = 0
KCH1 260330Z 16010KT 24/20 A2995 RMK A01 T02400196  RH  076%=      5-min Rain = 0
KCH1 260331Z 17009KT 24/20 A2995 RMK A01 T02410196  RH  076%=      5-min Rain = 0
KCH1 260332Z 16010KT 24/20 A2995 RMK A01 T02410196  RH  076%=      5-min Rain = 0
KCH1 260333Z 16010KT 24/20 A2996 RMK A01 T02410196  RH  076%=      5-min Rain = 0
KCH1 260334Z 16010KT 24/20 A2996 RMK A01 T02410196  RH  076%=      5-min Rain = 0
KCH1 260335Z 17009KT 24/20 A2996 RMK A01 T02420196  RH  075%=      5-min Rain = 0
KCH1 260336Z 17008KT 24/20 A2996 RMK A01 T02420196  RH  075%=      5-min Rain = 0
KCH1 260337Z 16009KT 24/20 A2996 RMK A01 T02420196  RH  075%=      5-min Rain = 0
KCH1 260338Z 17011KT 24/20 A2996 RMK A01 T02420195  RH  075%=      5-min Rain = 0
KCH1 260339Z 17009KT 24/20 A2996 RMK A01 T02430195  RH  075%=      5-min Rain = 0
KCH1 260340Z 17010KT 24/20 A2996 RMK A01 T02430195  RH  074%=      5-min Rain = 0
KCH1 260341Z 17012KT 24/20 A2996 RMK A01 T02440195  RH  074%=      5-min Rain = 0
KCH1 260342Z 17011KT 25/20 A2996 RMK A01 T02450195  RH  074%=      5-min Rain = 0
KCH1 260343Z 17009KT 25/20 A2996 RMK A01 T02450195  RH  074%=      5-min Rain = 0
KCH1 260344Z 17010G15KT 25/20 A2996 RMK A01 T02450195  RH  074%=      5-min Rain = 0
KCH1 260345Z 17011KT 25/20 A2996 RMK A01 T02450195  RH  073%=      5-min Rain = 0
KCH1 260346Z 17012G17KT 25/20 A2996 RMK A01 T02460195  RH  073%=      5-min Rain = 0
KCH1 260347Z 16010KT 25/20 A2996 RMK A01 T02460195  RH  073%=      5-min Rain = 0
KCH1 260348Z 17011KT 25/20 A2996 RMK A01 T02460195  RH  073%=      5-min Rain = 0
KCH1 260349Z 17012KT 25/19 A2996 RMK A01 T02460194  RH  073%=      5-min Rain = 0
KCH1 260350Z 16011G16KT 25/20 A2996 RMK A01 T02470195  RH  073%=      5-min Rain = 0
KCH1 260351Z 16011KT 25/20 A2996 RMK A01 T02470195  RH  073%=      5-min Rain = 0
KCH1 260352Z 16010KT 25/20 A2996 RMK A01 T02470195  RH  073%=      5-min Rain = 0
KCH1 260353Z 17012KT 25/20 A2996 RMK A01 T02460195  RH  073%=      5-min Rain = 0
KCH1 260354Z 16011KT 25/19 A2996 RMK A01 T02460194  RH  073%=      5-min Rain = 0
KCH1 260355Z 17012KT 25/19 A2996 RMK A01 T02460194  RH  073%=      5-min Rain = 0
KCH1 260356Z 16011KT 25/19 A2996 RMK A01 T02460194  RH  073%=      5-min Rain = 0
KCH1 260357Z 17011KT 25/20 A2996 RMK A01 T02470195  RH  073%=      5-min Rain = 0
KCH1 260358Z 17013KT 25/19 A2996 RMK A01 T02460194  RH  073%=      5-min Rain = 0
KCH1 260359Z 16010KT 25/19 A2996 RMK A01 T02460194  RH  073%=      5-min Rain = 0
KCH1 260400Z 16011KT 25/19 A2996 RMK A01 T02470194  RH  073%=      5-min Rain = 0
KCH1 260401Z 16010KT 25/19 A2996 RMK A01 T02470194  RH  073%=      5-min Rain = 0
KCH1 260402Z 17013G18KT 25/19 A2996 RMK A01 T02460194  RH  073%=      5-min Rain = 0
KCH1 260403Z 16010KT 25/19 A2996 RMK A01 T02460194  RH  073%=      5-min Rain = 0
KCH1 260404Z 16009KT 25/19 A2996 RMK A01 T02460194  RH  073%=      5-min Rain = 0
KCH1 260405Z 16009KT 25/19 A2996 RMK A01 T02460194  RH  073%=      5-min Rain = 0
KCH1 260406Z 16010KT 25/19 A2996 RMK A01 T02460194  RH  073%=      5-min Rain = 0
KCH1 260407Z 16011KT 25/19 A2996 RMK A01 T02450194  RH  073%=      5-min Rain = 0
KCH1 260408Z 16011KT 25/19 A2996 RMK A01 T02460194  RH  073%=      5-min Rain = 0
KCH1 260409Z 16011KT 25/19 A2996 RMK A01 T02460194  RH  073%=      5-min Rain = 0
KCH1 260410Z 16011KT 25/19 A2996 RMK A01 T02450194  RH  073%=      5-min Rain = 0
KCH1 260411Z 16010KT 25/19 A2996 RMK A01 T02460194  RH  073%=      5-min Rain = 0
KCH1 260412Z 16010KT 25/19 A2996 RMK A01 T02450194  RH  073%=      5-min Rain = 0
KCH1 260413Z 16008KT 25/19 A2996 RMK A01 T02450194  RH  073%=      5-min Rain = 0
KCH1 260414Z 16011G16KT 24/19 A2996 RMK A01 T02440194  RH  073%=      5-min Rain = 0
KCH1 260415Z 16011G16KT 24/19 A2996 RMK A01 T02440193  RH  073%=      5-min Rain = 0
KCH1 260416Z 17012G17KT 24/19 A2996 RMK A01 T02440193  RH  073%=      5-min Rain = 0
KCH1 260417Z 16011KT 25/19 A2996 RMK A01 T02450193  RH  073%=      5-min Rain = 0
KCH1 260418Z 16011KT 25/19 A2996 RMK A01 T02460193  RH  073%=      5-min Rain = 0
KCH1 260419Z 16011KT 25/19 A2996 RMK A01 T02460193  RH  073%=      5-min Rain = 0
KCH1 260420Z 16012KT 25/19 A2996 RMK A01 T02460194  RH  073%=      5-min Rain = 0
KCH1 260421Z 16011KT 25/19 A2996 RMK A01 T02460194  RH  073%=      5-min Rain = 0
KCH1 260422Z 17012G17KT 25/19 A2996 RMK A01 T02460194  RH  073%=      5-min Rain = 0
KCH1 260423Z 17014G19KT 25/19 A2995 RMK A01 T02460193  RH  073%=      5-min Rain = 0
KCH1 260424Z 16012G17KT 25/19 A2996 RMK A01 T02460193  RH  072%=      5-min Rain = 0
KCH1 260425Z 16012KT 25/19 A2995 RMK A01 T02460193  RH  072%=      5-min Rain = 0
KCH1 260426Z 17011KT 25/19 A2995 RMK A01 T02460193  RH  072%=      5-min Rain = 0
KCH1 260427Z 16012KT 25/19 A2995 RMK A01 T02460193  RH  072%=      5-min Rain = 0
KCH1 260428Z 16013KT 25/19 A2995 RMK A01 T02460193  RH  073%=      5-min Rain = 0
KCH1 260429Z 16011KT 25/19 A2995 RMK A01 T02460194  RH  073%=      5-min Rain = 0
KCH1 260430Z 17012KT 25/19 A2995 RMK A01 T02450194  RH  073%=      5-min Rain = 0
KCH1 260431Z 16010G15KT 25/19 A2995 RMK A01 T02450194  RH  073%=      5-min Rain = 0
KCH1 260432Z 16013G18KT 25/19 A2995 RMK A01 T02450194  RH  073%=      5-min Rain = 0
KCH1 260433Z 16011KT 25/19 A2995 RMK A01 T02460193  RH  073%=      5-min Rain = 0
KCH1 260434Z 16010G15KT 25/19 A2995 RMK A01 T02460194  RH  073%=      5-min Rain = 0
KCH1 260435Z 16011G16KT 25/19 A2995 RMK A01 T02450194  RH  073%=      5-min Rain = 0
KCH1 260436Z 16013KT 25/19 A2995 RMK A01 T02450193  RH  073%=      5-min Rain = 0
KCH1 260437Z 16013KT 25/19 A2995 RMK A01 T02450193  RH  073%=      5-min Rain = 0
KCH1 260438Z 16010KT 25/19 A2995 RMK A01 T02450193  RH  073%=      5-min Rain = 0
KCH1 260439Z 16008KT 25/19 A2995 RMK A01 T02450194  RH  073%=      5-min Rain = 0
KCH1 260440Z 16012G17KT 24/19 A2995 RMK A01 T02440194  RH  073%=      5-min Rain = 0
KCH1 260441Z 16014KT 24/19 A2995 RMK A01 T02440193  RH  073%=      5-min Rain = 0
KCH1 260442Z 16010KT 24/19 A2995 RMK A01 T02440193  RH  073%=      5-min Rain = 0
KCH1 260443Z 15009KT 24/19 A2995 RMK A01 T02440193  RH  073%=      5-min Rain = 0
KCH1 260444Z 15012G17KT 24/19 A2995 RMK A01 T02430194  RH  074%=      5-min Rain = 0
KCH1 260445Z 16013KT 24/19 A2995 RMK A01 T02430193  RH  074%=      5-min Rain = 0
KCH1 260446Z 16014KT 24/19 A2995 RMK A01 T02430192  RH  073%=      5-min Rain = 0
KCH1 260447Z 16013KT 24/19 A2995 RMK A01 T02430193  RH  073%=      5-min Rain = 0
KCH1 260448Z 16011KT 24/19 A2995 RMK A01 T02430192  RH  073%=      5-min Rain = 0
KCH1 260449Z 16012KT 24/19 A2995 RMK A01 T02430193  RH  073%=      5-min Rain = 0
KCH1 260450Z 16011KT 24/19 A2995 RMK A01 T02430193  RH  074%=      5-min Rain = 0
KCH1 260451Z 16011G18KT 24/19 A2996 RMK A01 T02430193  RH  073%=      5-min Rain = 0
KCH1 260452Z 16012KT 24/19 A2995 RMK A01 T02430193  RH  073%=      5-min Rain = 0
KCH1 260453Z 16013KT 24/19 A2995 RMK A01 T02430193  RH  073%=      5-min Rain = 0
KCH1 260454Z 16014KT 24/19 A2995 RMK A01 T02440193  RH  073%=      5-min Rain = 0
KCH1 260455Z 17013KT 24/19 A2996 RMK A01 T02440193  RH  073%=      5-min Rain = 0
KCH1 260456Z 16012G17KT 24/19 A2996 RMK A01 T02440193  RH  073%=      5-min Rain = 0
KCH1 260457Z 16016KT 24/19 A2996 RMK A01 T02440193  RH  073%=      5-min Rain = 0
KCH1 260458Z 17012KT 25/19 A2996 RMK A01 T02450193  RH  073%=      5-min Rain = 0
KCH1 260459Z 16010KT 25/19 A2996 RMK A01 T02450193  RH  073%=      5-min Rain = 0

Page generated in 0.1271 seconds.